GFSNIL_prec_precacc24_018.txt.gz
Total_Precipitation_Accumulation
0.01 0.00 0.00 0.00 0.00 0.00 0.00 0.00 0.00 0.00 0.00 0.00 0.00 0.00 0.00 0.00 0.00 0.00 0.00 0.00 0.00 0.00
0.00 0.00 0.00 0.00 0.00 0.00 0.00 0.00 0.00 0.00 0.00 0.00 0.00 0.00 0.00 0.00 0.00 0.00 0.00 0.00 0.00 0.00
0.00 0.00 0.00 0.00 0.00 0.00 0.00 0.00 0.00 0.00 0.00 0.00 0.00 0.00 0.00 0.00 0.00 0.00 0.00 0.00 0.00 0.00
0.00 0.00 0.00 0.00 0.00 0.00 0.00 0.00 0.00 0.00 0.00 0.00 0.00 0.00 0.00 0.00 0.00 0.00 0.00 0.00 0.00 0.00
0.00 0.00 0.00 0.00 0.00 0.00 0.00 0.00 0.00 0.00 0.00 0.00 0.00 0.00 0.00 0.00 0.00 0.00 0.00 0.00 0.00 0.00
0.00 0.00 0.00 0.00 0.00 0.00 0.00 0.00 0.00 0.00 0.00 0.00 0.00 0.00 0.00 0.00 0.00 0.00 0.00 0.00 0.00 0.00
0.00 0.00 0.00 0.00 0.00 0.00 0.00 0.00 0.00 0.00 0.00 0.00 0.00 0.00 0.00 0.00 0.00 0.00 0.00 0.00 0.00 0.00
0.00 0.00 0.00 0.00 0.00 0.00 0.00 0.00 0.00 0.00 0.00 0.00 0.00 0.00 0.00 0.00 0.00 0.00 0.00 0.00 0.00 0.00
0.00 0.00 0.00 0.00 0.00 0.00 0.00 0.00 0.00 0.00 0.00 0.00 0.00 0.00 0.00 0.00 0.00 0.00 0.00 0.00 0.00 0.00
0.00 0.00 0.00 0.00 0.00 0.00 0.00 0.00 0.00 0.00 0.00 0.00 0.00 0.00 0.00 0.00 0.00 0.00 0.00 0.00 0.00 0.00
0.00 0.00 0.00 0.00 0.00 0.00 0.00 0.00 0.00 0.00 0.00 0.00 0.00 0.00 0.00 0.00 0.00 0.00 0.00 0.00 0.00 0.00
0.00 0.00 0.00 0.00 0.00 0.00 0.00 0.00 0.00 0.00 0.00 0.00 0.00 0.00 0.00 0.00 0.00 0.00 0.00 0.00 0.00 0.01
0.00 0.00 0.00 0.00 0.00 0.00 0.00 0.00 0.00 0.00 0.00 0.00 0.00 0.00 0.00 0.00 0.00 0.00 0.00 0.00 0.00 0.00
0.00 0.00 0.00 0.00 0.00 0.00 0.00 0.00 0.00 0.00 0.00 0.00 0.00 0.00 0.00 0.00 0.00 0.00 0.01 0.00 0.00 0.00

GFSNIL_prec_precacc24_021.txt.gz
Total_Precipitation_Accumulation
0.02 0.01 0.00 0.00 0.00 0.00 0.00 0.00 0.00 0.00 0.00 0.00 0.00 0.00 0.00 0.00 0.00 0.00 0.00 0.00 0.00 0.00
0.01 0.00 0.00 0.00 0.00 0.00 0.00 0.00 0.00 0.00 0.00 0.00 0.00 0.00 0.00 0.00 0.00 0.00 0.00 0.00 0.00 0.00
0.00 0.01 0.00 0.00 0.00 0.00 0.00 0.00 0.00 0.00 0.00 0.00 0.00 0.00 0.00 0.00 0.00 0.00 0.00 0.00 0.00 0.00
0.00 0.00 0.00 0.00 0.00 0.00 0.00 0.00 0.00 0.00 0.00 0.00 0.00 0.00 0.00 0.00 0.00 0.00 0.00 0.00 0.00 0.00
0.00 0.00 0.00 0.00 0.00 0.00 0.00 0.00 0.00 0.00 0.00 0.00 0.00 0.00 0.00 0.00 0.00 0.00 0.00 0.00 0.00 0.00
0.00 0.00 0.00 0.00 0.00 0.00 0.00 0.00 0.00 0.00 0.00 0.00 0.00 0.00 0.00 0.00 0.00 0.00 0.00 0.00 0.00 0.00
0.00 0.00 0.00 0.00 0.00 0.00 0.00 0.00 0.00 0.00 0.00 0.00 0.00 0.00 0.00 0.00 0.00 0.00 0.00 0.00 0.00 0.00
0.00 0.00 0.00 0.00 0.00 0.00 0.00 0.00 0.00 0.00 0.00 0.00 0.00 0.00 0.00 0.00 0.00 0.00 0.00 0.00 0.00 0.00
0.00 0.00 0.00 0.00 0.00 0.00 0.00 0.00 0.00 0.00 0.00 0.00 0.00 0.00 0.00 0.00 0.00 0.00 0.00 0.00 0.00 0.00
0.00 0.00 0.00 0.00 0.00 0.00 0.00 0.00 0.00 0.00 0.00 0.00 0.00 0.00 0.00 0.00 0.00 0.00 0.00 0.00 0.00 0.00
0.00 0.00 0.00 0.00 0.00 0.00 0.00 0.00 0.00 0.00 0.00 0.00 0.00 0.00 0.00 0.00 0.00 0.00 0.00 0.00 0.00 0.00
0.00 0.00 0.00 0.00 0.00 0.00 0.00 0.00 0.00 0.00 0.00 0.00 0.00 0.00 0.00 0.00 0.00 0.00 0.00 0.00 0.00 0.01
0.00 0.00 0.00 0.00 0.00 0.00 0.00 0.00 0.00 0.00 0.00 0.00 0.00 0.00 0.00 0.00 0.00 0.00 0.00 0.00 0.00 0.00
0.00 0.00 0.00 0.00 0.00 0.00 0.00 0.00 0.00 0.00 0.00 0.00 0.00 0.00 0.00 0.00 0.00 0.00 0.01 0.00 0.00 0.00

GFSNIL_prec_precacc24_024.txt.gz
Total_Precipitation_Accumulation
0.02 0.01 0.01 0.01 0.01 0.00 0.00 0.00 0.00 0.00 0.00 0.00 0.00 0.00 0.00 0.00 0.00 0.00 0.00 0.00 0.00 0.00
0.01 0.01 0.01 0.01 0.01 0.00 0.00 0.00 0.00 0.00 0.00 0.00 0.00 0.00 0.00 0.00 0.00 0.00 0.00 0.00 0.00 0.00
0.01 0.01 0.01 0.00 0.00 0.00 0.00 0.00 0.00 0.00 0.00 0.00 0.00 0.00 0.00 0.00 0.00 0.00 0.00 0.00 0.00 0.00
0.01 0.02 0.01 0.01 0.00 0.00 0.00 0.00 0.00 0.00 0.00 0.00 0.00 0.00 0.00 0.00 0.00 0.00 0.00 0.00 0.00 0.00
0.01 0.01 0.01 0.01 0.01 0.00 0.00 0.00 0.00 0.00 0.00 0.00 0.00 0.00 0.00 0.00 0.00 0.00 0.00 0.00 0.00 0.00
0.00 0.00 0.01 0.02 0.01 0.01 0.00 0.00 0.00 0.00 0.00 0.00 0.00 0.00 0.00 0.00 0.00 0.00 0.00 0.00 0.00 0.00
0.01 0.01 0.01 0.01 0.00 0.01 0.00 0.00 0.00 0.00 0.00 0.00 0.00 0.00 0.00 0.00 0.00 0.00 0.00 0.00 0.00 0.00
0.01 0.02 0.01 0.00 0.00 0.00 0.00 0.00 0.00 0.00 0.00 0.00 0.00 0.00 0.00 0.00 0.00 0.00 0.00 0.00 0.00 0.00
0.02 0.02 0.01 0.01 0.00 0.00 0.00 0.00 0.00 0.00 0.00 0.00 0.00 0.00 0.00 0.00 0.00 0.00 0.00 0.00 0.00 0.00
0.03 0.04 0.04 0.03 0.01 0.00 0.00 0.00 0.00 0.00 0.00 0.00 0.00 0.00 0.00 0.00 0.00 0.00 0.00 0.00 0.00 0.00
0.21 0.15 0.04 0.03 0.01 0.00 0.00 0.00 0.00 0.00 0.00 0.00 0.00 0.00 0.00 0.00 0.00 0.00 0.00 0.00 0.00 0.00
0.17 0.10 0.01 0.00 0.00 0.00 0.00 0.00 0.00 0.00 0.00 0.00 0.00 0.00 0.00 0.00 0.00 0.00 0.00 0.00 0.00 0.01
0.08 0.03 0.00 0.00 0.00 0.00 0.00 0.00 0.00 0.00 0.00 0.00 0.00 0.00 0.00 0.00 0.00 0.00 0.00 0.00 0.00 0.00
0.00 0.00 0.00 0.00 0.00 0.00 0.00 0.00 0.00 0.00 0.00 0.00 0.00 0.00 0.00 0.00 0.00 0.00 0.01 0.00 0.00 0.00

GFSNIL_prec_precacc24_030.txt.gz
Total_Precipitation_Accumulation
0.03 0.04 0.04 0.04 0.05 0.05 0.04 0.03 0.03 0.02 0.01 0.01 0.00 0.00 0.00 0.00 0.00 0.00 0.00 0.00 0.00 0.00
0.03 0.04 0.03 0.03 0.04 0.04 0.03 0.03 0.02 0.02 0.01 0.01 0.00 0.00 0.00 0.00 0.00 0.00 0.00 0.00 0.00 0.00
0.05 0.05 0.05 0.04 0.04 0.03 0.03 0.03 0.03 0.01 0.01 0.01 0.00 0.00 0.00 0.00 0.00 0.00 0.00 0.00 0.00 0.00
0.05 0.06 0.06 0.05 0.03 0.02 0.02 0.03 0.04 0.04 0.04 0.04 0.01 0.00 0.00 0.00 0.00 0.00 0.00 0.00 0.00 0.00
0.03 0.04 0.06 0.05 0.04 0.02 0.03 0.03 0.03 0.05 0.10 0.12 0.07 0.01 0.00 0.00 0.00 0.00 0.00 0.00 0.00 0.00
0.03 0.04 0.04 0.04 0.04 0.03 0.03 0.04 0.04 0.02 0.02 0.04 0.05 0.02 0.00 0.00 0.00 0.00 0.00 0.00 0.00 0.00
0.04 0.03 0.03 0.03 0.03 0.04 0.03 0.02 0.02 0.02 0.05 0.05 0.01 0.01 0.00 0.00 0.00 0.00 0.00 0.00 0.00 0.00
0.05 0.03 0.02 0.03 0.04 0.04 0.02 0.07 0.07 0.03 0.02 0.01 0.01 0.01 0.00 0.00 0.00 0.00 0.00 0.00 0.00 0.00
0.04 0.05 0.03 0.04 0.04 0.03 0.03 0.06 0.12 0.15 0.07 0.01 0.00 0.00 0.00 0.00 0.00 0.00 0.00 0.00 0.00 0.00
0.10 0.07 0.09 0.09 0.09 0.12 0.11 0.08 0.12 0.11 0.07 0.03 0.03 0.03 0.01 0.00 0.00 0.00 0.00 0.00 0.00 0.00
0.25 0.30 0.33 0.42 0.40 0.39 0.44 0.48 0.42 0.32 0.21 0.10 0.04 0.01 0.00 0.00 0.00 0.00 0.00 0.00 0.00 0.00
0.39 0.52 0.57 0.65 0.67 0.56 0.37 0.25 0.16 0.08 0.03 0.01 0.00 0.00 0.00 0.00 0.00 0.00 0.00 0.00 0.00 0.00
0.74 0.67 0.60 0.47 0.38 0.20 0.08 0.02 0.01 0.00 0.00 0.00 0.00 0.00 0.00 0.00 0.00 0.00 0.00 0.00 0.00 0.00
0.46 0.34 0.28 0.19 0.05 0.02 0.01 0.00 0.00 0.00 0.00 0.00 0.00 0.00 0.00 0.00 0.00 0.00 0.00 0.00 0.00 0.00

GFSNIL_prec_precacc24_033.txt.gz
Total_Precipitation_Accumulation
0.03 0.04 0.04 0.04 0.05 0.06 0.05 0.05 0.05 0.04 0.04 0.03 0.02 0.02 0.01 0.00 0.00 0.00 0.00 0.00 0.00 0.00
0.03 0.04 0.03 0.03 0.05 0.05 0.05 0.06 0.05 0.04 0.04 0.03 0.02 0.02 0.01 0.01 0.00 0.00 0.00 0.00 0.00 0.00
0.05 0.05 0.05 0.04 0.05 0.04 0.04 0.05 0.05 0.03 0.02 0.02 0.01 0.01 0.00 0.00 0.00 0.00 0.00 0.00 0.00 0.00
0.05 0.06 0.07 0.06 0.05 0.05 0.06 0.06 0.06 0.04 0.04 0.04 0.02 0.01 0.01 0.00 0.00 0.00 0.00 0.00 0.00 0.00
0.03 0.05 0.07 0.07 0.07 0.05 0.06 0.05 0.05 0.06 0.10 0.12 0.07 0.04 0.04 0.04 0.03 0.01 0.01 0.01 0.00 0.00
0.04 0.05 0.06 0.07 0.09 0.07 0.06 0.05 0.05 0.03 0.03 0.05 0.09 0.13 0.13 0.10 0.07 0.02 0.00 0.00 0.00 0.00
0.07 0.05 0.04 0.05 0.05 0.06 0.04 0.03 0.02 0.02 0.05 0.09 0.10 0.08 0.07 0.06 0.05 0.01 0.00 0.00 0.00 0.00
0.11 0.07 0.04 0.03 0.04 0.04 0.03 0.07 0.07 0.03 0.03 0.03 0.06 0.09 0.10 0.10 0.05 0.01 0.01 0.01 0.00 0.00
0.08 0.08 0.06 0.06 0.05 0.03 0.03 0.06 0.13 0.17 0.11 0.06 0.04 0.03 0.02 0.01 0.01 0.01 0.02 0.02 0.00 0.00
0.17 0.11 0.21 0.16 0.14 0.15 0.13 0.10 0.14 0.16 0.19 0.20 0.20 0.18 0.15 0.09 0.06 0.03 0.01 0.00 0.00 0.00
0.43 0.37 0.45 0.58 0.46 0.43 0.51 0.56 0.55 0.49 0.44 0.42 0.39 0.31 0.18 0.07 0.03 0.01 0.00 0.00 0.00 0.00
0.68 0.61 0.65 0.71 0.85 0.79 0.59 0.54 0.44 0.37 0.33 0.21 0.10 0.05 0.02 0.01 0.00 0.00 0.00 0.00 0.00 0.00
0.84 0.74 0.79 0.61 0.53 0.48 0.31 0.18 0.13 0.07 0.03 0.01 0.00 0.00 0.00 0.00 0.00 0.00 0.00 0.00 0.00 0.00
0.56 0.48 0.39 0.32 0.17 0.10 0.05 0.02 0.01 0.01 0.00 0.00 0.00 0.00 0.00 0.00 0.00 0.00 0.00 0.00 0.00 0.00

GFSNIL_prec_precacc24_036.txt.gz
Total_Precipitation_Accumulation
0.03 0.04 0.04 0.04 0.05 0.06 0.06 0.07 0.07 0.07 0.07 0.06 0.05 0.04 0.03 0.02 0.02 0.01 0.00 0.00 0.00 0.00
0.03 0.04 0.03 0.03 0.05 0.05 0.05 0.07 0.10 0.09 0.09 0.08 0.05 0.04 0.02 0.02 0.01 0.01 0.01 0.01 0.02 0.02
0.05 0.05 0.05 0.04 0.05 0.04 0.04 0.06 0.07 0.07 0.07 0.06 0.05 0.03 0.01 0.01 0.01 0.00 0.00 0.01 0.01 0.00
0.05 0.06 0.07 0.06 0.05 0.05 0.06 0.06 0.08 0.07 0.07 0.06 0.03 0.02 0.01 0.00 0.00 0.00 0.00 0.01 0.00 0.00
0.03 0.05 0.07 0.07 0.07 0.05 0.06 0.06 0.06 0.09 0.12 0.13 0.08 0.04 0.04 0.04 0.03 0.03 0.03 0.04 0.04 0.04
0.04 0.05 0.06 0.07 0.09 0.07 0.06 0.06 0.06 0.04 0.04 0.07 0.10 0.13 0.14 0.11 0.08 0.08 0.07 0.07 0.06 0.04
0.07 0.06 0.05 0.05 0.05 0.07 0.06 0.05 0.03 0.03 0.06 0.10 0.11 0.10 0.10 0.10 0.11 0.10 0.10 0.09 0.07 0.04
0.11 0.08 0.04 0.04 0.05 0.05 0.04 0.08 0.09 0.05 0.04 0.04 0.06 0.11 0.14 0.15 0.14 0.10 0.10 0.09 0.08 0.07
0.08 0.09 0.06 0.06 0.06 0.04 0.04 0.07 0.14 0.18 0.11 0.06 0.05 0.10 0.07 0.04 0.05 0.09 0.11 0.11 0.08 0.06
0.17 0.12 0.23 0.17 0.16 0.18 0.17 0.12 0.16 0.17 0.19 0.22 0.24 0.33 0.31 0.30 0.28 0.26 0.20 0.13 0.09 0.05
0.43 0.38 0.47 0.67 0.56 0.59 0.62 0.64 0.60 0.52 0.49 0.51 0.54 0.52 0.41 0.26 0.17 0.13 0.10 0.07 0.04 0.01
0.72 0.69 0.69 0.79 0.96 0.93 0.67 0.60 0.53 0.45 0.43 0.36 0.28 0.19 0.11 0.07 0.04 0.02 0.01 0.00 0.00 0.00
0.95 0.87 0.99 0.76 0.61 0.59 0.49 0.29 0.26 0.28 0.22 0.13 0.07 0.04 0.02 0.01 0.00 0.00 0.00 0.00 0.00 0.00
0.61 0.53 0.48 0.49 0.33 0.27 0.23 0.17 0.10 0.05 0.03 0.01 0.00 0.00 0.00 0.00 0.00 0.00 0.00 0.00 0.00 0.00

GFSNIL_prec_precacc24_039.txt.gz
Total_Precipitation_Accumulation
0.03 0.04 0.04 0.04 0.05 0.06 0.06 0.07 0.07 0.10 0.11 0.10 0.10 0.10 0.08 0.06 0.04 0.04 0.02 0.01 0.01 0.01
0.03 0.04 0.03 0.03 0.05 0.05 0.05 0.07 0.10 0.10 0.11 0.11 0.11 0.11 0.09 0.08 0.05 0.03 0.01 0.02 0.03 0.03
0.05 0.05 0.05 0.04 0.05 0.04 0.04 0.06 0.07 0.07 0.07 0.07 0.08 0.08 0.08 0.07 0.05 0.02 0.01 0.01 0.01 0.01
0.05 0.06 0.07 0.06 0.05 0.05 0.06 0.06 0.08 0.07 0.07 0.06 0.04 0.03 0.03 0.03 0.03 0.03 0.02 0.01 0.02 0.02
0.03 0.05 0.07 0.07 0.07 0.05 0.06 0.06 0.06 0.09 0.12 0.13 0.09 0.05 0.05 0.05 0.04 0.05 0.08 0.07 0.07 0.07
0.04 0.05 0.06 0.07 0.09 0.07 0.06 0.06 0.06 0.04 0.04 0.07 0.10 0.14 0.14 0.11 0.09 0.08 0.08 0.09 0.10 0.08
0.07 0.06 0.05 0.05 0.06 0.08 0.06 0.05 0.04 0.03 0.06 0.10 0.11 0.10 0.10 0.11 0.12 0.13 0.13 0.12 0.12 0.13
0.11 0.08 0.04 0.04 0.06 0.06 0.05 0.09 0.10 0.07 0.06 0.05 0.06 0.12 0.15 0.16 0.17 0.17 0.20 0.21 0.24 0.29
0.08 0.09 0.07 0.07 0.09 0.07 0.05 0.08 0.17 0.25 0.17 0.12 0.09 0.14 0.09 0.06 0.07 0.12 0.17 0.21 0.22 0.17
0.17 0.12 0.23 0.18 0.19 0.21 0.21 0.14 0.18 0.25 0.33 0.30 0.32 0.40 0.36 0.33 0.32 0.32 0.28 0.22 0.17 0.13
0.44 0.38 0.48 0.68 0.57 0.60 0.65 0.72 0.63 0.56 0.54 0.54 0.58 0.57 0.46 0.31 0.24 0.19 0.17 0.14 0.10 0.05
0.74 0.69 0.69 0.79 0.99 1.00 0.71 0.68 0.67 0.60 0.53 0.43 0.36 0.26 0.16 0.11 0.10 0.10 0.06 0.03 0.00 0.00
0.98 0.92 1.08 0.83 0.68 0.72 0.62 0.39 0.36 0.37 0.30 0.22 0.17 0.12 0.08 0.05 0.03 0.01 0.00 0.00 0.00 0.00
0.66 0.61 0.63 0.67 0.51 0.43 0.38 0.33 0.27 0.17 0.10 0.05 0.03 0.01 0.00 0.00 0.00 0.00 0.00 0.00 0.00 0.00

GFSNIL_prec_precacc24_042.txt.gz
Total_Precipitation_Accumulation
0.02 0.04 0.04 0.04 0.05 0.06 0.06 0.07 0.07 0.11 0.13 0.13 0.13 0.13 0.14 0.13 0.12 0.12 0.08 0.05 0.03 0.03
0.03 0.04 0.03 0.03 0.05 0.05 0.05 0.07 0.10 0.10 0.11 0.12 0.13 0.13 0.13 0.13 0.12 0.12 0.09 0.07 0.06 0.05
0.05 0.05 0.05 0.04 0.05 0.04 0.04 0.06 0.07 0.07 0.07 0.07 0.08 0.09 0.10 0.09 0.09 0.09 0.08 0.07 0.04 0.02
0.05 0.06 0.07 0.06 0.05 0.05 0.06 0.06 0.08 0.07 0.07 0.06 0.04 0.03 0.03 0.04 0.05 0.05 0.07 0.09 0.10 0.11
0.03 0.05 0.07 0.07 0.07 0.05 0.06 0.06 0.06 0.09 0.12 0.13 0.09 0.05 0.05 0.05 0.04 0.05 0.09 0.12 0.16 0.18
0.04 0.05 0.06 0.07 0.09 0.07 0.06 0.07 0.07 0.05 0.06 0.07 0.11 0.14 0.14 0.11 0.09 0.08 0.09 0.10 0.11 0.10
0.07 0.06 0.05 0.05 0.06 0.08 0.08 0.07 0.05 0.05 0.08 0.11 0.11 0.10 0.10 0.11 0.12 0.13 0.14 0.14 0.15 0.17
0.11 0.08 0.04 0.04 0.06 0.06 0.06 0.11 0.12 0.08 0.06 0.05 0.07 0.12 0.15 0.16 0.18 0.18 0.22 0.24 0.29 0.34
0.08 0.09 0.07 0.08 0.09 0.07 0.06 0.09 0.19 0.27 0.19 0.14 0.11 0.18 0.11 0.07 0.08 0.14 0.20 0.27 0.29 0.23
0.17 0.12 0.23 0.18 0.19 0.22 0.22 0.17 0.21 0.28 0.38 0.39 0.39 0.50 0.47 0.43 0.38 0.35 0.33 0.27 0.22 0.16
0.44 0.38 0.48 0.68 0.58 0.61 0.67 0.81 0.71 0.65 0.63 0.71 0.74 0.68 0.54 0.39 0.29 0.23 0.20 0.16 0.11 0.06
0.75 0.70 0.69 0.80 1.02 1.12 0.83 0.81 0.80 0.67 0.63 0.49 0.44 0.34 0.23 0.16 0.14 0.12 0.08 0.04 0.01 0.00
0.99 0.92 1.10 0.86 0.72 0.87 0.77 0.50 0.48 0.52 0.46 0.34 0.25 0.15 0.09 0.06 0.04 0.01 0.00 0.00 0.00 0.00
0.66 0.62 0.65 0.71 0.57 0.50 0.49 0.45 0.40 0.27 0.16 0.08 0.03 0.01 0.00 0.00 0.00 0.00 0.00 0.00 0.00 0.00

GFSNIL_prec_precacc24_045.txt.gz
Total_Precipitation_Accumulation
0.01 0.03 0.04 0.04 0.05 0.06 0.06 0.07 0.08 0.11 0.13 0.13 0.14 0.15 0.15 0.14 0.14 0.15 0.13 0.11 0.10 0.11
0.02 0.04 0.03 0.03 0.05 0.05 0.05 0.07 0.10 0.10 0.11 0.12 0.13 0.15 0.16 0.15 0.16 0.15 0.13 0.14 0.13 0.10
0.04 0.04 0.05 0.04 0.05 0.04 0.04 0.06 0.07 0.07 0.07 0.07 0.08 0.10 0.11 0.12 0.13 0.14 0.12 0.10 0.09 0.07
0.05 0.06 0.07 0.06 0.05 0.05 0.06 0.06 0.08 0.07 0.07 0.06 0.05 0.04 0.05 0.07 0.08 0.10 0.12 0.13 0.14 0.15
0.03 0.04 0.07 0.07 0.07 0.05 0.06 0.06 0.06 0.09 0.13 0.15 0.11 0.07 0.07 0.07 0.06 0.07 0.11 0.14 0.17 0.19
0.03 0.04 0.06 0.07 0.09 0.07 0.06 0.07 0.08 0.06 0.07 0.10 0.14 0.17 0.16 0.14 0.11 0.09 0.10 0.10 0.11 0.11
0.06 0.05 0.05 0.05 0.06 0.08 0.08 0.07 0.05 0.06 0.09 0.12 0.13 0.12 0.11 0.13 0.13 0.14 0.14 0.14 0.16 0.19
0.10 0.08 0.04 0.04 0.06 0.06 0.06 0.11 0.12 0.09 0.07 0.06 0.07 0.13 0.16 0.18 0.18 0.19 0.22 0.25 0.30 0.36
0.08 0.09 0.07 0.08 0.09 0.07 0.06 0.09 0.19 0.27 0.19 0.15 0.12 0.21 0.13 0.08 0.09 0.15 0.21 0.28 0.30 0.29
0.17 0.12 0.23 0.18 0.19 0.22 0.22 0.17 0.21 0.28 0.39 0.42 0.47 0.59 0.51 0.49 0.43 0.38 0.35 0.29 0.23 0.18
0.44 0.38 0.48 0.68 0.58 0.61 0.68 0.85 0.92 0.74 0.76 0.86 0.86 0.79 0.64 0.46 0.39 0.34 0.26 0.19 0.13 0.06
0.74 0.70 0.69 0.80 1.02 1.12 0.86 0.83 0.84 0.74 0.76 0.62 0.53 0.41 0.29 0.22 0.18 0.17 0.11 0.05 0.01 0.00
0.99 0.92 1.10 0.86 0.72 0.87 0.78 0.51 0.50 0.56 0.53 0.39 0.30 0.21 0.13 0.08 0.05 0.02 0.00 0.00 0.00 0.00
0.66 0.62 0.65 0.71 0.57 0.50 0.49 0.46 0.40 0.28 0.17 0.10 0.04 0.01 0.00 0.00 0.00 0.00 0.00 0.00 0.00 0.00

GFSNIL_prec_precacc24_048.txt.gz
Total_Precipitation_Accumulation
0.01 0.03 0.03 0.03 0.04 0.06 0.06 0.07 0.08 0.13 0.14 0.15 0.16 0.17 0.17 0.17 0.19 0.19 0.17 0.16 0.16 0.15
0.02 0.03 0.02 0.02 0.04 0.04 0.05 0.07 0.10 0.11 0.12 0.13 0.14 0.16 0.18 0.18 0.19 0.22 0.23 0.23 0.23 0.17
0.04 0.03 0.04 0.04 0.04 0.04 0.04 0.06 0.07 0.07 0.07 0.07 0.09 0.11 0.13 0.15 0.16 0.19 0.19 0.19 0.19 0.16
0.04 0.05 0.05 0.05 0.05 0.05 0.05 0.06 0.08 0.07 0.07 0.06 0.05 0.04 0.05 0.08 0.10 0.14 0.16 0.19 0.22 0.22
0.02 0.04 0.06 0.06 0.06 0.05 0.06 0.06 0.06 0.09 0.13 0.15 0.11 0.07 0.07 0.07 0.07 0.09 0.13 0.17 0.22 0.24
0.03 0.04 0.05 0.06 0.08 0.07 0.06 0.07 0.08 0.06 0.07 0.10 0.14 0.17 0.16 0.14 0.11 0.10 0.12 0.13 0.15 0.15
0.06 0.05 0.03 0.04 0.06 0.07 0.08 0.07 0.05 0.06 0.09 0.12 0.13 0.12 0.11 0.13 0.14 0.16 0.16 0.16 0.19 0.22
0.09 0.06 0.03 0.04 0.06 0.06 0.06 0.11 0.12 0.09 0.07 0.06 0.07 0.13 0.16 0.18 0.19 0.20 0.24 0.28 0.33 0.39
0.06 0.07 0.05 0.06 0.09 0.07 0.06 0.09 0.19 0.27 0.20 0.15 0.13 0.21 0.13 0.08 0.09 0.16 0.23 0.30 0.34 0.34
0.14 0.08 0.19 0.15 0.18 0.22 0.22 0.17 0.21 0.28 0.39 0.42 0.48 0.62 0.54 0.51 0.52 0.49 0.43 0.36 0.30 0.26
0.23 0.23 0.44 0.65 0.57 0.61 0.68 0.85 0.92 0.74 0.76 0.88 0.94 0.85 0.69 0.55 0.48 0.49 0.42 0.31 0.20 0.10
0.58 0.60 0.68 0.80 1.03 1.12 0.86 0.83 0.84 0.74 0.76 0.62 0.54 0.43 0.30 0.23 0.21 0.19 0.14 0.07 0.02 0.00
0.91 0.90 1.10 0.86 0.72 0.87 0.78 0.51 0.50 0.56 0.53 0.39 0.30 0.21 0.13 0.08 0.05 0.02 0.00 0.00 0.00 0.00
0.66 0.62 0.65 0.71 0.57 0.50 0.49 0.46 0.40 0.28 0.17 0.10 0.04 0.01 0.00 0.00 0.00 0.00 0.00 0.00 0.00 0.00

GFSNIL_prec_precacc24_051.txt.gz
Total_Precipitation_Accumulation
0.00 0.01 0.02 0.01 0.02 0.03 0.05 0.07 0.08 0.13 0.14 0.16 0.17 0.18 0.18 0.19 0.23 0.27 0.25 0.25 0.26 0.24
0.01 0.02 0.02 0.01 0.03 0.03 0.04 0.07 0.09 0.10 0.12 0.13 0.14 0.16 0.18 0.19 0.21 0.27 0.31 0.33 0.38 0.32
0.03 0.03 0.03 0.03 0.03 0.02 0.02 0.05 0.05 0.06 0.06 0.07 0.09 0.11 0.13 0.15 0.16 0.20 0.21 0.22 0.24 0.22
0.04 0.04 0.04 0.04 0.04 0.04 0.04 0.03 0.05 0.04 0.06 0.06 0.05 0.04 0.05 0.08 0.11 0.14 0.17 0.19 0.23 0.24
0.02 0.03 0.04 0.05 0.05 0.04 0.03 0.03 0.04 0.08 0.13 0.15 0.11 0.07 0.07 0.07 0.07 0.09 0.13 0.17 0.22 0.25
0.03 0.03 0.04 0.04 0.05 0.05 0.04 0.05 0.06 0.06 0.07 0.10 0.14 0.17 0.16 0.14 0.11 0.10 0.12 0.13 0.15 0.15
0.05 0.04 0.03 0.02 0.04 0.04 0.05 0.06 0.05 0.06 0.09 0.12 0.13 0.12 0.11 0.13 0.14 0.16 0.16 0.16 0.19 0.24
0.09 0.05 0.02 0.02 0.03 0.03 0.04 0.10 0.12 0.09 0.07 0.06 0.07 0.13 0.16 0.18 0.19 0.20 0.24 0.28 0.34 0.41
0.06 0.06 0.04 0.03 0.06 0.05 0.05 0.09 0.19 0.27 0.20 0.15 0.13 0.21 0.13 0.08 0.09 0.16 0.23 0.31 0.36 0.41
0.14 0.06 0.16 0.12 0.13 0.13 0.15 0.14 0.21 0.28 0.39 0.42 0.48 0.62 0.54 0.51 0.52 0.49 0.44 0.39 0.33 0.31
0.21 0.10 0.22 0.45 0.31 0.36 0.45 0.76 0.90 0.74 0.76 0.88 0.94 0.86 0.69 0.55 0.48 0.49 0.43 0.32 0.23 0.14
0.39 0.26 0.26 0.48 0.77 0.95 0.82 0.83 0.84 0.74 0.76 0.62 0.54 0.43 0.30 0.23 0.21 0.19 0.14 0.07 0.02 0.00
0.45 0.45 0.83 0.73 0.69 0.87 0.78 0.51 0.50 0.56 0.53 0.39 0.30 0.21 0.13 0.08 0.05 0.02 0.00 0.00 0.00 0.00
0.47 0.51 0.63 0.70 0.57 0.50 0.49 0.46 0.40 0.28 0.17 0.10 0.04 0.01 0.00 0.00 0.00 0.00 0.00 0.00 0.00 0.00

GFSNIL_prec_precacc24_054.txt.gz
Total_Precipitation_Accumulation
0.00 0.00 0.00 0.00 0.00 0.01 0.01 0.04 0.06 0.11 0.13 0.15 0.17 0.18 0.18 0.19 0.23 0.28 0.27 0.28 0.28 0.27
0.00 0.00 0.00 0.00 0.00 0.00 0.02 0.05 0.07 0.09 0.11 0.13 0.14 0.16 0.18 0.19 0.21 0.27 0.31 0.35 0.40 0.34
0.00 0.00 0.00 0.00 0.01 0.01 0.01 0.02 0.03 0.05 0.06 0.06 0.08 0.10 0.13 0.15 0.16 0.20 0.21 0.22 0.25 0.23
0.00 0.00 0.00 0.01 0.02 0.02 0.03 0.03 0.04 0.03 0.02 0.02 0.03 0.04 0.05 0.08 0.11 0.14 0.17 0.19 0.23 0.24
0.00 0.00 0.01 0.02 0.03 0.03 0.03 0.03 0.03 0.04 0.03 0.04 0.04 0.05 0.07 0.07 0.07 0.09 0.14 0.18 0.23 0.25
0.01 0.01 0.02 0.03 0.05 0.04 0.03 0.03 0.03 0.04 0.05 0.06 0.09 0.15 0.16 0.14 0.11 0.11 0.12 0.13 0.15 0.16
0.03 0.03 0.02 0.02 0.03 0.04 0.04 0.04 0.04 0.04 0.04 0.07 0.12 0.11 0.11 0.13 0.14 0.16 0.16 0.16 0.19 0.24
0.06 0.04 0.02 0.01 0.02 0.03 0.03 0.04 0.05 0.06 0.05 0.05 0.06 0.12 0.16 0.18 0.19 0.20 0.23 0.28 0.34 0.41
0.04 0.04 0.03 0.03 0.05 0.04 0.03 0.03 0.07 0.12 0.12 0.13 0.12 0.22 0.13 0.08 0.09 0.16 0.23 0.31 0.36 0.42
0.07 0.05 0.14 0.10 0.11 0.10 0.11 0.08 0.10 0.18 0.32 0.39 0.45 0.60 0.53 0.51 0.52 0.49 0.44 0.39 0.33 0.31
0.19 0.08 0.15 0.26 0.18 0.22 0.24 0.37 0.50 0.42 0.55 0.78 0.90 0.85 0.69 0.55 0.48 0.49 0.43 0.32 0.23 0.14
0.36 0.18 0.12 0.15 0.35 0.56 0.48 0.58 0.68 0.65 0.73 0.62 0.54 0.43 0.30 0.23 0.21 0.19 0.14 0.07 0.02 0.00
0.25 0.25 0.50 0.39 0.34 0.67 0.70 0.49 0.49 0.56 0.53 0.39 0.30 0.21 0.13 0.08 0.05 0.02 0.00 0.00 0.00 0.00
0.20 0.27 0.37 0.52 0.51 0.48 0.48 0.46 0.40 0.28 0.17 0.10 0.04 0.01 0.00 0.00 0.00 0.00 0.00 0.00 0.00 0.00

GFSNIL_prec_precacc24_057.txt.gz
Total_Precipitation_Accumulation
0.00 0.00 0.00 0.00 0.00 0.00 0.00 0.02 0.03 0.09 0.10 0.13 0.15 0.16 0.17 0.18 0.23 0.28 0.27 0.28 0.28 0.27
0.00 0.00 0.00 0.00 0.00 0.00 0.00 0.01 0.04 0.07 0.08 0.10 0.12 0.15 0.17 0.18 0.21 0.27 0.31 0.35 0.40 0.34
0.00 0.00 0.00 0.00 0.00 0.00 0.00 0.00 0.01 0.03 0.04 0.05 0.07 0.10 0.13 0.15 0.16 0.20 0.21 0.22 0.25 0.23
0.00 0.00 0.00 0.00 0.00 0.00 0.00 0.00 0.01 0.02 0.02 0.02 0.03 0.03 0.04 0.08 0.10 0.14 0.17 0.19 0.23 0.25
0.00 0.00 0.00 0.00 0.00 0.00 0.00 0.01 0.01 0.03 0.03 0.03 0.04 0.03 0.03 0.03 0.04 0.08 0.12 0.16 0.22 0.25
0.00 0.00 0.00 0.00 0.00 0.00 0.00 0.02 0.03 0.04 0.04 0.05 0.04 0.03 0.03 0.03 0.04 0.08 0.12 0.14 0.15 0.16
0.00 0.00 0.00 0.00 0.01 0.02 0.03 0.04 0.04 0.04 0.03 0.03 0.03 0.03 0.04 0.07 0.09 0.15 0.16 0.16 0.19 0.24
0.00 0.00 0.00 0.01 0.02 0.02 0.03 0.04 0.04 0.05 0.04 0.02 0.02 0.04 0.06 0.08 0.14 0.19 0.23 0.27 0.33 0.41
0.00 0.01 0.01 0.02 0.04 0.03 0.03 0.03 0.06 0.10 0.09 0.09 0.09 0.19 0.12 0.07 0.08 0.15 0.21 0.29 0.36 0.42
0.01 0.01 0.02 0.03 0.05 0.07 0.10 0.07 0.08 0.12 0.21 0.22 0.28 0.44 0.39 0.42 0.47 0.46 0.43 0.38 0.33 0.31
0.01 0.01 0.03 0.10 0.12 0.17 0.16 0.28 0.37 0.25 0.31 0.46 0.55 0.56 0.52 0.47 0.45 0.48 0.42 0.32 0.23 0.14
0.06 0.09 0.04 0.10 0.18 0.32 0.27 0.29 0.40 0.37 0.43 0.42 0.44 0.38 0.28 0.23 0.20 0.19 0.14 0.07 0.02 0.00
0.16 0.18 0.31 0.26 0.19 0.39 0.47 0.33 0.37 0.49 0.50 0.38 0.29 0.21 0.13 0.08 0.05 0.02 0.00 0.00 0.00 0.00
0.10 0.13 0.26 0.38 0.39 0.40 0.44 0.44 0.39 0.27 0.17 0.10 0.04 0.01 0.00 0.00 0.00 0.00 0.00 0.00 0.00 0.00

GFSNIL_prec_precacc24_060.txt.gz
Total_Precipitation_Accumulation
0.00 0.00 0.00 0.00 0.00 0.00 0.00 0.00 0.01 0.06 0.07 0.10 0.12 0.14 0.15 0.16 0.21 0.27 0.28 0.28 0.28 0.27
0.00 0.00 0.00 0.00 0.00 0.00 0.00 0.00 0.00 0.02 0.03 0.05 0.09 0.12 0.16 0.17 0.19 0.26 0.31 0.33 0.38 0.32
0.00 0.00 0.00 0.00 0.00 0.00 0.00 0.00 0.00 0.00 0.00 0.01 0.04 0.08 0.12 0.14 0.16 0.20 0.21 0.21 0.24 0.22
0.00 0.00 0.00 0.00 0.00 0.00 0.00 0.00 0.00 0.00 0.00 0.00 0.01 0.02 0.04 0.08 0.10 0.14 0.16 0.18 0.22 0.24
0.00 0.00 0.00 0.00 0.00 0.00 0.00 0.00 0.00 0.00 0.00 0.02 0.03 0.03 0.03 0.03 0.04 0.06 0.10 0.14 0.18 0.21
0.00 0.00 0.00 0.00 0.00 0.00 0.00 0.01 0.02 0.02 0.03 0.03 0.04 0.03 0.03 0.03 0.03 0.03 0.05 0.07 0.09 0.12
0.00 0.00 0.00 0.00 0.01 0.01 0.02 0.02 0.02 0.03 0.02 0.02 0.02 0.02 0.01 0.02 0.03 0.06 0.07 0.08 0.12 0.20
0.00 0.00 0.00 0.00 0.01 0.01 0.01 0.02 0.03 0.03 0.03 0.02 0.01 0.02 0.03 0.03 0.05 0.10 0.14 0.19 0.26 0.34
0.00 0.00 0.00 0.01 0.03 0.03 0.02 0.02 0.05 0.09 0.09 0.08 0.08 0.14 0.08 0.04 0.04 0.07 0.12 0.20 0.28 0.36
0.00 0.00 0.01 0.02 0.04 0.03 0.05 0.05 0.06 0.11 0.20 0.20 0.24 0.31 0.23 0.22 0.24 0.24 0.24 0.26 0.24 0.25
0.00 0.00 0.01 0.01 0.02 0.02 0.05 0.21 0.32 0.22 0.26 0.36 0.40 0.34 0.29 0.29 0.30 0.36 0.32 0.25 0.19 0.12
0.03 0.01 0.01 0.01 0.07 0.19 0.18 0.24 0.30 0.29 0.33 0.26 0.26 0.24 0.19 0.17 0.16 0.17 0.13 0.07 0.02 0.00
0.04 0.05 0.11 0.10 0.10 0.28 0.28 0.22 0.24 0.28 0.31 0.26 0.23 0.16 0.11 0.08 0.05 0.02 0.00 0.00 0.00 0.00
0.05 0.09 0.17 0.22 0.23 0.23 0.26 0.29 0.31 0.23 0.15 0.08 0.04 0.01 0.00 0.00 0.00 0.00 0.00 0.00 0.00 0.00

GFSNIL_prec_precacc24_063.txt.gz
Total_Precipitation_Accumulation
0.00 0.00 0.00 0.00 0.00 0.00 0.00 0.00 0.01 0.03 0.03 0.05 0.07 0.08 0.10 0.13 0.19 0.25 0.27 0.28 0.28 0.27
0.00 0.00 0.00 0.00 0.00 0.00 0.00 0.00 0.00 0.01 0.01 0.02 0.03 0.05 0.09 0.12 0.16 0.24 0.30 0.33 0.37 0.32
0.00 0.00 0.00 0.00 0.00 0.00 0.00 0.00 0.00 0.00 0.00 0.00 0.01 0.03 0.05 0.08 0.11 0.18 0.20 0.21 0.24 0.22
0.00 0.00 0.00 0.00 0.00 0.00 0.00 0.00 0.00 0.00 0.00 0.00 0.01 0.01 0.02 0.05 0.07 0.11 0.15 0.18 0.21 0.22
0.00 0.00 0.00 0.00 0.00 0.00 0.00 0.00 0.00 0.00 0.00 0.02 0.02 0.02 0.02 0.02 0.03 0.04 0.06 0.11 0.16 0.18
0.00 0.00 0.00 0.00 0.00 0.00 0.00 0.01 0.02 0.02 0.03 0.03 0.03 0.03 0.02 0.02 0.02 0.02 0.03 0.04 0.05 0.07
0.00 0.00 0.00 0.00 0.00 0.00 0.01 0.02 0.02 0.02 0.02 0.02 0.02 0.01 0.01 0.02 0.02 0.03 0.03 0.04 0.07 0.11
0.00 0.00 0.00 0.00 0.00 0.00 0.01 0.02 0.02 0.02 0.01 0.01 0.01 0.02 0.02 0.02 0.02 0.03 0.04 0.07 0.10 0.13
0.00 0.00 0.00 0.00 0.00 0.00 0.01 0.01 0.01 0.02 0.03 0.03 0.03 0.10 0.06 0.03 0.02 0.04 0.06 0.10 0.14 0.24
0.00 0.00 0.00 0.00 0.00 0.00 0.02 0.02 0.04 0.04 0.06 0.12 0.16 0.24 0.19 0.18 0.20 0.17 0.16 0.17 0.16 0.18
0.00 0.00 0.00 0.00 0.01 0.01 0.03 0.13 0.29 0.18 0.21 0.34 0.36 0.29 0.24 0.24 0.24 0.30 0.26 0.18 0.13 0.08
0.00 0.01 0.00 0.01 0.04 0.12 0.15 0.15 0.17 0.14 0.23 0.20 0.18 0.17 0.14 0.12 0.11 0.09 0.08 0.04 0.01 0.00
0.01 0.01 0.02 0.03 0.04 0.15 0.16 0.12 0.14 0.19 0.23 0.17 0.13 0.09 0.05 0.04 0.02 0.01 0.00 0.00 0.00 0.00
0.00 0.00 0.02 0.04 0.05 0.07 0.11 0.13 0.14 0.11 0.08 0.04 0.02 0.00 0.00 0.00 0.00 0.00 0.00 0.00 0.00 0.00

GFSNIL_prec_precacc24_066.txt.gz
Total_Precipitation_Accumulation
0.00 0.00 0.00 0.00 0.00 0.00 0.00 0.00 0.01 0.03 0.02 0.03 0.05 0.05 0.04 0.06 0.12 0.17 0.21 0.25 0.26 0.25
0.00 0.00 0.00 0.00 0.00 0.00 0.00 0.00 0.00 0.01 0.01 0.01 0.02 0.03 0.05 0.06 0.09 0.16 0.23 0.28 0.34 0.31
0.00 0.00 0.00 0.00 0.00 0.00 0.00 0.00 0.00 0.00 0.00 0.00 0.01 0.02 0.03 0.06 0.07 0.12 0.14 0.16 0.20 0.21
0.00 0.00 0.00 0.00 0.00 0.00 0.00 0.00 0.00 0.00 0.00 0.00 0.01 0.01 0.02 0.04 0.06 0.08 0.10 0.11 0.13 0.14
0.00 0.00 0.00 0.00 0.00 0.00 0.00 0.00 0.00 0.00 0.00 0.02 0.02 0.02 0.02 0.02 0.03 0.04 0.05 0.06 0.07 0.07
0.00 0.00 0.00 0.00 0.00 0.00 0.00 0.00 0.01 0.01 0.01 0.03 0.03 0.03 0.02 0.02 0.02 0.02 0.03 0.04 0.04 0.06
0.00 0.00 0.00 0.00 0.00 0.00 0.00 0.00 0.00 0.01 0.00 0.01 0.01 0.01 0.01 0.02 0.02 0.03 0.03 0.03 0.04 0.07
0.00 0.00 0.00 0.00 0.00 0.00 0.00 0.00 0.00 0.00 0.01 0.01 0.01 0.01 0.02 0.01 0.01 0.01 0.02 0.03 0.05 0.07
0.00 0.00 0.00 0.00 0.00 0.00 0.00 0.00 0.00 0.00 0.00 0.01 0.02 0.06 0.04 0.01 0.01 0.02 0.03 0.04 0.08 0.19
0.00 0.00 0.00 0.00 0.00 0.00 0.00 0.00 0.00 0.00 0.01 0.03 0.10 0.14 0.08 0.09 0.15 0.14 0.11 0.12 0.11 0.14
0.00 0.00 0.00 0.00 0.00 0.00 0.00 0.04 0.21 0.09 0.13 0.17 0.20 0.18 0.16 0.15 0.19 0.26 0.23 0.16 0.11 0.07
0.00 0.00 0.00 0.00 0.00 0.00 0.02 0.02 0.03 0.06 0.13 0.13 0.10 0.09 0.07 0.07 0.07 0.07 0.06 0.03 0.01 0.00
0.00 0.00 0.00 0.00 0.00 0.00 0.01 0.01 0.02 0.04 0.07 0.05 0.05 0.06 0.04 0.02 0.01 0.00 0.00 0.00 0.00 0.00
0.00 0.00 0.00 0.00 0.00 0.00 0.00 0.00 0.01 0.01 0.02 0.01 0.01 0.00 0.00 0.00 0.00 0.00 0.00 0.00 0.00 0.00

GFSNIL_prec_precacc24_069.txt.gz
Total_Precipitation_Accumulation
0.00 0.00 0.00 0.00 0.00 0.00 0.00 0.00 0.00 0.02 0.01 0.02 0.03 0.03 0.03 0.05 0.10 0.14 0.17 0.19 0.20 0.18
0.00 0.00 0.00 0.00 0.00 0.00 0.00 0.00 0.00 0.01 0.01 0.01 0.01 0.02 0.03 0.04 0.05 0.12 0.19 0.22 0.28 0.26
0.00 0.00 0.00 0.00 0.00 0.00 0.00 0.00 0.00 0.00 0.00 0.00 0.00 0.01 0.02 0.03 0.03 0.07 0.09 0.12 0.16 0.16
0.00 0.00 0.00 0.00 0.00 0.00 0.00 0.00 0.00 0.00 0.00 0.00 0.00 0.00 0.00 0.01 0.02 0.04 0.05 0.07 0.09 0.10
0.00 0.00 0.00 0.00 0.00 0.00 0.00 0.00 0.00 0.00 0.00 0.00 0.00 0.00 0.00 0.01 0.02 0.02 0.03 0.04 0.06 0.06
0.00 0.00 0.00 0.00 0.00 0.00 0.00 0.00 0.00 0.00 0.00 0.00 0.00 0.00 0.00 0.00 0.00 0.01 0.02 0.03 0.04 0.05
0.00 0.00 0.00 0.00 0.00 0.00 0.00 0.00 0.00 0.00 0.00 0.00 0.00 0.00 0.00 0.00 0.01 0.02 0.02 0.02 0.03 0.05
0.00 0.00 0.00 0.00 0.00 0.00 0.00 0.00 0.00 0.00 0.00 0.00 0.00 0.00 0.00 0.00 0.01 0.01 0.01 0.02 0.04 0.05
0.00 0.00 0.00 0.00 0.00 0.00 0.00 0.00 0.00 0.00 0.00 0.00 0.00 0.03 0.02 0.01 0.00 0.01 0.02 0.03 0.06 0.13
0.00 0.00 0.00 0.00 0.00 0.00 0.00 0.00 0.00 0.00 0.00 0.00 0.02 0.06 0.04 0.02 0.10 0.11 0.09 0.10 0.10 0.12
0.00 0.00 0.00 0.00 0.00 0.00 0.00 0.00 0.00 0.00 0.00 0.02 0.08 0.07 0.05 0.09 0.08 0.15 0.17 0.13 0.10 0.07
0.00 0.00 0.00 0.00 0.00 0.00 0.00 0.00 0.00 0.00 0.00 0.00 0.01 0.02 0.01 0.01 0.02 0.02 0.03 0.02 0.00 0.00
0.00 0.00 0.00 0.00 0.00 0.00 0.00 0.00 0.00 0.00 0.00 0.00 0.00 0.00 0.00 0.00 0.00 0.00 0.00 0.00 0.00 0.00
0.00 0.00 0.00 0.00 0.00 0.00 0.00 0.00 0.00 0.00 0.00 0.00 0.00 0.00 0.00 0.00 0.00 0.00 0.00 0.00 0.00 0.00

GFSNIL_prec_precacc24_072.txt.gz
Total_Precipitation_Accumulation
0.00 0.00 0.00 0.00 0.00 0.00 0.00 0.00 0.00 0.00 0.00 0.01 0.02 0.01 0.01 0.02 0.05 0.10 0.13 0.15 0.16 0.15
0.00 0.00 0.00 0.00 0.00 0.00 0.00 0.00 0.00 0.00 0.00 0.00 0.00 0.00 0.00 0.01 0.02 0.05 0.09 0.13 0.19 0.20
0.00 0.00 0.00 0.00 0.00 0.00 0.00 0.00 0.00 0.00 0.00 0.00 0.00 0.00 0.00 0.00 0.00 0.02 0.02 0.03 0.06 0.08
0.00 0.00 0.00 0.00 0.00 0.00 0.00 0.00 0.00 0.00 0.00 0.00 0.00 0.00 0.00 0.00 0.00 0.00 0.00 0.00 0.01 0.02
0.00 0.00 0.00 0.00 0.00 0.00 0.00 0.00 0.00 0.00 0.00 0.00 0.00 0.00 0.00 0.00 0.00 0.00 0.00 0.01 0.01 0.01
0.00 0.00 0.00 0.00 0.00 0.00 0.00 0.00 0.00 0.00 0.00 0.00 0.00 0.00 0.00 0.00 0.00 0.00 0.00 0.00 0.00 0.01
0.00 0.00 0.00 0.00 0.00 0.00 0.00 0.00 0.00 0.00 0.00 0.00 0.00 0.00 0.00 0.00 0.00 0.00 0.00 0.00 0.00 0.02
0.00 0.00 0.00 0.00 0.00 0.00 0.00 0.00 0.00 0.00 0.00 0.00 0.00 0.00 0.00 0.00 0.00 0.00 0.00 0.00 0.01 0.02
0.00 0.00 0.00 0.00 0.00 0.00 0.00 0.00 0.00 0.00 0.00 0.00 0.00 0.03 0.02 0.00 0.00 0.00 0.00 0.01 0.02 0.08
0.00 0.00 0.00 0.00 0.00 0.00 0.00 0.00 0.00 0.00 0.00 0.00 0.01 0.03 0.02 0.01 0.00 0.00 0.01 0.02 0.02 0.05
0.00 0.00 0.00 0.00 0.00 0.00 0.00 0.00 0.00 0.00 0.00 0.00 0.01 0.01 0.00 0.00 0.00 0.00 0.00 0.01 0.02 0.03
0.00 0.00 0.00 0.00 0.00 0.00 0.00 0.00 0.00 0.00 0.00 0.00 0.00 0.00 0.00 0.00 0.00 0.00 0.00 0.00 0.00 0.00
0.00 0.00 0.00 0.00 0.00 0.00 0.00 0.00 0.00 0.00 0.00 0.00 0.00 0.00 0.00 0.00 0.00 0.00 0.00 0.00 0.00 0.00
0.00 0.00 0.00 0.00 0.00 0.00 0.00 0.00 0.00 0.00 0.00 0.00 0.00 0.00 0.00 0.00 0.00 0.00 0.00 0.00 0.00 0.00

GFSNIL_prec_precacc24_075.txt.gz
Total_Precipitation_Accumulation
0.00 0.00 0.00 0.00 0.00 0.00 0.00 0.00 0.00 0.00 0.00 0.00 0.00 0.00 0.00 0.00 0.01 0.02 0.05 0.06 0.05 0.06
0.00 0.00 0.00 0.00 0.00 0.00 0.00 0.00 0.00 0.00 0.00 0.00 0.00 0.00 0.00 0.00 0.00 0.00 0.01 0.02 0.03 0.04
0.00 0.00 0.00 0.00 0.00 0.00 0.00 0.00 0.00 0.00 0.00 0.00 0.00 0.00 0.00 0.00 0.00 0.00 0.00 0.00 0.00 0.01
0.00 0.00 0.00 0.00 0.00 0.00 0.00 0.00 0.00 0.00 0.00 0.00 0.00 0.00 0.00 0.00 0.00 0.00 0.00 0.00 0.00 0.00
0.00 0.00 0.00 0.00 0.00 0.00 0.00 0.00 0.00 0.00 0.00 0.00 0.00 0.00 0.00 0.00 0.00 0.00 0.00 0.01 0.01 0.00
0.00 0.00 0.00 0.00 0.00 0.00 0.00 0.00 0.00 0.00 0.00 0.00 0.00 0.00 0.00 0.00 0.00 0.00 0.00 0.00 0.00 0.00
0.00 0.00 0.00 0.00 0.00 0.00 0.00 0.00 0.00 0.00 0.00 0.00 0.00 0.00 0.00 0.00 0.00 0.00 0.00 0.00 0.00 0.00
0.00 0.00 0.00 0.00 0.00 0.00 0.00 0.00 0.00 0.00 0.00 0.00 0.00 0.00 0.00 0.00 0.00 0.00 0.00 0.00 0.00 0.00
0.00 0.00 0.00 0.00 0.00 0.00 0.00 0.00 0.00 0.00 0.00 0.00 0.00 0.03 0.02 0.00 0.00 0.00 0.00 0.00 0.00 0.00
0.00 0.00 0.00 0.00 0.00 0.00 0.00 0.00 0.00 0.00 0.00 0.00 0.00 0.04 0.02 0.01 0.00 0.00 0.00 0.00 0.00 0.00
0.00 0.00 0.00 0.00 0.00 0.00 0.00 0.00 0.00 0.00 0.00 0.00 0.01 0.01 0.00 0.01 0.00 0.00 0.00 0.00 0.00 0.00
0.00 0.00 0.00 0.00 0.00 0.00 0.00 0.00 0.00 0.00 0.00 0.00 0.00 0.00 0.00 0.00 0.00 0.00 0.00 0.00 0.00 0.00
0.00 0.00 0.00 0.00 0.00 0.00 0.00 0.00 0.00 0.00 0.00 0.00 0.00 0.00 0.00 0.00 0.00 0.00 0.00 0.00 0.00 0.00
0.00 0.00 0.00 0.00 0.00 0.00 0.00 0.00 0.00 0.00 0.00 0.00 0.00 0.00 0.00 0.00 0.00 0.00 0.00 0.00 0.00 0.00

GFSNIL_prec_precacc24_078.txt.gz
Total_Precipitation_Accumulation
0.02 0.02 0.02 0.02 0.01 0.01 0.00 0.00 0.00 0.00 0.00 0.00 0.00 0.00 0.00 0.00 0.01 0.01 0.03 0.03 0.03 0.03
0.00 0.00 0.00 0.00 0.00 0.00 0.00 0.00 0.00 0.00 0.00 0.00 0.00 0.00 0.00 0.00 0.00 0.00 0.00 0.01 0.02 0.03
0.00 0.00 0.00 0.00 0.00 0.00 0.00 0.00 0.00 0.00 0.00 0.00 0.00 0.00 0.00 0.00 0.00 0.00 0.00 0.00 0.00 0.01
0.00 0.00 0.00 0.00 0.00 0.00 0.00 0.00 0.00 0.00 0.00 0.00 0.00 0.00 0.00 0.00 0.00 0.00 0.00 0.00 0.00 0.00
0.00 0.00 0.00 0.00 0.00 0.00 0.00 0.00 0.00 0.00 0.00 0.00 0.00 0.00 0.00 0.00 0.00 0.00 0.00 0.00 0.00 0.00
0.00 0.00 0.00 0.00 0.00 0.00 0.00 0.00 0.00 0.00 0.00 0.00 0.00 0.00 0.00 0.00 0.00 0.00 0.00 0.00 0.00 0.00
0.00 0.00 0.00 0.00 0.00 0.00 0.00 0.00 0.00 0.00 0.00 0.00 0.00 0.00 0.00 0.00 0.00 0.00 0.00 0.00 0.00 0.00
0.00 0.00 0.00 0.00 0.00 0.00 0.00 0.00 0.00 0.00 0.00 0.00 0.00 0.00 0.00 0.00 0.00 0.00 0.00 0.00 0.00 0.00
0.00 0.00 0.00 0.00 0.00 0.00 0.00 0.00 0.00 0.00 0.00 0.00 0.00 0.03 0.02 0.01 0.00 0.00 0.00 0.00 0.00 0.00
0.00 0.00 0.00 0.00 0.00 0.00 0.00 0.00 0.00 0.00 0.00 0.00 0.00 0.03 0.02 0.01 0.00 0.00 0.00 0.00 0.00 0.00
0.00 0.00 0.00 0.00 0.00 0.00 0.00 0.00 0.00 0.00 0.00 0.00 0.01 0.02 0.01 0.01 0.00 0.00 0.00 0.00 0.00 0.00
0.00 0.00 0.00 0.00 0.00 0.00 0.00 0.00 0.00 0.00 0.00 0.00 0.00 0.01 0.00 0.00 0.00 0.00 0.00 0.00 0.00 0.00
0.00 0.00 0.00 0.00 0.00 0.00 0.00 0.00 0.00 0.00 0.00 0.00 0.00 0.00 0.00 0.00 0.00 0.00 0.00 0.00 0.00 0.00
0.00 0.00 0.00 0.00 0.00 0.00 0.00 0.00 0.00 0.00 0.00 0.00 0.00 0.00 0.00 0.00 0.00 0.00 0.00 0.00 0.00 0.00

GFSNIL_prec_precacc24_081.txt.gz
Total_Precipitation_Accumulation
0.06 0.05 0.05 0.05 0.05 0.05 0.04 0.03 0.01 0.00 0.00 0.00 0.00 0.00 0.00 0.00 0.01 0.01 0.02 0.03 0.03 0.03
0.00 0.00 0.01 0.03 0.03 0.02 0.01 0.00 0.00 0.00 0.00 0.00 0.00 0.00 0.00 0.00 0.00 0.00 0.00 0.01 0.02 0.03
0.00 0.00 0.00 0.00 0.00 0.00 0.00 0.00 0.00 0.00 0.00 0.00 0.00 0.00 0.00 0.00 0.00 0.00 0.00 0.00 0.00 0.01
0.00 0.00 0.00 0.00 0.00 0.00 0.00 0.00 0.00 0.00 0.00 0.00 0.00 0.00 0.00 0.00 0.00 0.00 0.00 0.00 0.00 0.00
0.00 0.00 0.00 0.00 0.00 0.00 0.00 0.00 0.00 0.00 0.00 0.00 0.00 0.00 0.00 0.00 0.00 0.00 0.00 0.00 0.00 0.00
0.00 0.00 0.00 0.00 0.00 0.00 0.00 0.00 0.00 0.00 0.00 0.00 0.00 0.00 0.00 0.00 0.00 0.00 0.00 0.00 0.00 0.00
0.00 0.00 0.00 0.00 0.00 0.00 0.00 0.00 0.00 0.00 0.00 0.00 0.00 0.00 0.00 0.00 0.00 0.00 0.00 0.00 0.00 0.00
0.00 0.00 0.00 0.00 0.00 0.00 0.00 0.00 0.00 0.00 0.00 0.00 0.00 0.00 0.00 0.00 0.00 0.00 0.00 0.00 0.00 0.00
0.00 0.00 0.00 0.00 0.00 0.00 0.00 0.00 0.00 0.00 0.00 0.00 0.00 0.02 0.02 0.01 0.00 0.00 0.00 0.00 0.00 0.00
0.00 0.00 0.00 0.00 0.00 0.00 0.00 0.00 0.00 0.00 0.00 0.00 0.00 0.03 0.02 0.01 0.00 0.00 0.00 0.00 0.00 0.00
0.00 0.00 0.00 0.00 0.00 0.00 0.00 0.00 0.00 0.00 0.00 0.00 0.01 0.02 0.01 0.01 0.00 0.00 0.00 0.00 0.00 0.00
0.00 0.00 0.00 0.00 0.00 0.00 0.00 0.00 0.00 0.00 0.00 0.00 0.00 0.01 0.00 0.00 0.00 0.00 0.00 0.00 0.00 0.00
0.00 0.00 0.00 0.00 0.00 0.00 0.00 0.00 0.00 0.00 0.00 0.00 0.00 0.00 0.00 0.00 0.00 0.00 0.00 0.00 0.00 0.00
0.00 0.00 0.00 0.00 0.00 0.00 0.00 0.00 0.00 0.00 0.00 0.00 0.00 0.00 0.00 0.00 0.00 0.00 0.00 0.00 0.00 0.00

GFSNIL_prec_precacc24_084.txt.gz
Total_Precipitation_Accumulation
0.08 0.06 0.06 0.11 0.20 0.11 0.06 0.05 0.01 0.00 0.00 0.00 0.00 0.00 0.00 0.00 0.00 0.01 0.02 0.03 0.03 0.03
0.00 0.00 0.02 0.06 0.05 0.05 0.04 0.02 0.01 0.00 0.00 0.00 0.00 0.00 0.00 0.00 0.00 0.00 0.00 0.01 0.01 0.02
0.00 0.00 0.00 0.00 0.00 0.00 0.00 0.00 0.00 0.00 0.00 0.00 0.00 0.00 0.00 0.00 0.00 0.00 0.00 0.00 0.00 0.01
0.00 0.00 0.00 0.00 0.00 0.00 0.00 0.00 0.00 0.00 0.00 0.00 0.00 0.00 0.00 0.00 0.00 0.00 0.00 0.00 0.00 0.00
0.00 0.00 0.00 0.00 0.00 0.00 0.00 0.00 0.00 0.00 0.00 0.00 0.00 0.00 0.00 0.00 0.00 0.00 0.00 0.00 0.00 0.00
0.00 0.00 0.00 0.00 0.00 0.00 0.00 0.00 0.00 0.00 0.00 0.00 0.00 0.00 0.00 0.00 0.00 0.00 0.00 0.00 0.00 0.00
0.00 0.00 0.00 0.00 0.00 0.00 0.00 0.00 0.00 0.00 0.00 0.00 0.00 0.00 0.00 0.00 0.00 0.00 0.00 0.00 0.00 0.00
0.00 0.00 0.00 0.00 0.00 0.00 0.00 0.00 0.00 0.00 0.00 0.00 0.00 0.00 0.00 0.00 0.00 0.00 0.00 0.00 0.00 0.00
0.00 0.00 0.00 0.00 0.00 0.00 0.00 0.00 0.00 0.00 0.00 0.00 0.00 0.01 0.01 0.00 0.00 0.00 0.00 0.00 0.00 0.00
0.00 0.00 0.00 0.00 0.00 0.00 0.00 0.00 0.00 0.00 0.00 0.00 0.00 0.03 0.01 0.01 0.00 0.00 0.00 0.00 0.00 0.00
0.00 0.00 0.00 0.00 0.00 0.00 0.00 0.00 0.00 0.00 0.00 0.00 0.01 0.02 0.01 0.01 0.00 0.00 0.00 0.00 0.00 0.00
0.00 0.00 0.00 0.00 0.00 0.00 0.00 0.00 0.00 0.00 0.00 0.00 0.00 0.01 0.00 0.00 0.00 0.00 0.00 0.00 0.00 0.00
0.00 0.00 0.00 0.00 0.00 0.00 0.00 0.00 0.00 0.00 0.00 0.00 0.00 0.00 0.00 0.00 0.00 0.00 0.00 0.00 0.00 0.00
0.00 0.00 0.00 0.00 0.00 0.00 0.00 0.00 0.00 0.00 0.00 0.00 0.00 0.00 0.00 0.00 0.00 0.00 0.00 0.00 0.00 0.00

GFSNIL_prec_precacc24_087.txt.gz
Total_Precipitation_Accumulation
0.08 0.06 0.06 0.12 0.23 0.16 0.10 0.08 0.02 0.01 0.00 0.00 0.00 0.00 0.00 0.00 0.00 0.00 0.01 0.02 0.02 0.03
0.00 0.00 0.02 0.06 0.05 0.06 0.05 0.03 0.01 0.00 0.00 0.00 0.00 0.00 0.00 0.00 0.00 0.00 0.00 0.01 0.01 0.02
0.00 0.00 0.00 0.00 0.00 0.00 0.00 0.00 0.00 0.00 0.00 0.00 0.00 0.00 0.00 0.00 0.00 0.00 0.00 0.00 0.00 0.01
0.00 0.00 0.00 0.00 0.00 0.00 0.00 0.00 0.00 0.00 0.00 0.00 0.00 0.00 0.00 0.00 0.00 0.00 0.00 0.00 0.00 0.00
0.00 0.00 0.00 0.00 0.00 0.00 0.00 0.00 0.00 0.00 0.00 0.00 0.00 0.00 0.00 0.00 0.00 0.00 0.00 0.00 0.00 0.00
0.00 0.00 0.00 0.00 0.00 0.00 0.00 0.00 0.00 0.00 0.00 0.00 0.00 0.00 0.00 0.00 0.00 0.00 0.00 0.00 0.00 0.00
0.00 0.00 0.00 0.00 0.00 0.00 0.00 0.00 0.00 0.00 0.00 0.00 0.00 0.00 0.00 0.00 0.00 0.00 0.00 0.00 0.00 0.00
0.00 0.00 0.00 0.00 0.00 0.00 0.00 0.00 0.00 0.00 0.00 0.00 0.00 0.00 0.00 0.00 0.00 0.00 0.00 0.00 0.00 0.00
0.00 0.00 0.00 0.00 0.00 0.00 0.00 0.00 0.00 0.00 0.00 0.00 0.00 0.01 0.00 0.00 0.00 0.00 0.00 0.00 0.00 0.00
0.00 0.00 0.00 0.00 0.00 0.00 0.00 0.00 0.00 0.00 0.00 0.00 0.00 0.02 0.01 0.01 0.00 0.00 0.00 0.00 0.00 0.00
0.00 0.00 0.00 0.00 0.00 0.00 0.00 0.00 0.00 0.00 0.00 0.00 0.01 0.02 0.01 0.01 0.00 0.00 0.00 0.00 0.00 0.00
0.00 0.00 0.00 0.00 0.00 0.00 0.00 0.00 0.00 0.00 0.00 0.00 0.00 0.01 0.00 0.00 0.00 0.00 0.00 0.00 0.00 0.00
0.00 0.00 0.00 0.00 0.00 0.00 0.00 0.00 0.00 0.00 0.00 0.00 0.00 0.00 0.01 0.00 0.00 0.00 0.00 0.00 0.00 0.00
0.00 0.00 0.00 0.00 0.00 0.00 0.00 0.00 0.00 0.00 0.00 0.00 0.00 0.00 0.01 0.01 0.00 0.00 0.00 0.00 0.00 0.00

GFSNIL_prec_precacc24_090.txt.gz
Total_Precipitation_Accumulation
0.09 0.06 0.06 0.12 0.23 0.16 0.12 0.12 0.06 0.06 0.04 0.04 0.01 0.00 0.00 0.00 0.00 0.00 0.00 0.01 0.02 0.02
0.00 0.01 0.02 0.06 0.05 0.06 0.06 0.04 0.02 0.01 0.01 0.01 0.00 0.00 0.00 0.00 0.00 0.00 0.00 0.00 0.00 0.01
0.00 0.00 0.00 0.00 0.00 0.00 0.00 0.01 0.00 0.00 0.00 0.00 0.00 0.00 0.00 0.00 0.00 0.00 0.00 0.00 0.00 0.00
0.00 0.00 0.00 0.00 0.00 0.00 0.00 0.00 0.00 0.00 0.00 0.00 0.00 0.00 0.00 0.00 0.00 0.00 0.00 0.00 0.00 0.00
0.00 0.00 0.00 0.00 0.00 0.00 0.00 0.00 0.00 0.00 0.00 0.00 0.00 0.00 0.00 0.00 0.00 0.00 0.00 0.00 0.00 0.00
0.00 0.00 0.00 0.00 0.00 0.00 0.00 0.00 0.00 0.00 0.00 0.00 0.00 0.00 0.00 0.00 0.00 0.00 0.00 0.00 0.00 0.00
0.00 0.00 0.00 0.00 0.00 0.00 0.00 0.00 0.00 0.00 0.00 0.00 0.00 0.00 0.00 0.00 0.00 0.00 0.00 0.00 0.00 0.00
0.00 0.00 0.00 0.00 0.00 0.00 0.00 0.00 0.00 0.00 0.00 0.00 0.00 0.00 0.00 0.00 0.00 0.00 0.00 0.00 0.00 0.00
0.00 0.00 0.00 0.00 0.00 0.00 0.00 0.00 0.00 0.00 0.00 0.00 0.00 0.00 0.00 0.00 0.00 0.00 0.00 0.00 0.00 0.00
0.00 0.00 0.00 0.00 0.00 0.00 0.00 0.00 0.00 0.00 0.00 0.00 0.00 0.02 0.01 0.01 0.00 0.00 0.00 0.00 0.00 0.00
0.00 0.00 0.00 0.00 0.00 0.00 0.00 0.00 0.00 0.00 0.00 0.00 0.01 0.01 0.01 0.01 0.00 0.00 0.00 0.00 0.00 0.00
0.00 0.00 0.00 0.00 0.00 0.00 0.00 0.00 0.00 0.00 0.00 0.00 0.00 0.01 0.00 0.00 0.00 0.00 0.00 0.00 0.00 0.00
0.00 0.00 0.00 0.00 0.00 0.00 0.00 0.00 0.00 0.00 0.00 0.00 0.00 0.00 0.01 0.00 0.00 0.00 0.00 0.00 0.00 0.00
0.00 0.00 0.00 0.00 0.00 0.00 0.00 0.00 0.00 0.00 0.00 0.00 0.00 0.00 0.01 0.01 0.00 0.00 0.00 0.00 0.00 0.00

GFSNIL_prec_precacc24_093.txt.gz
Total_Precipitation_Accumulation
0.15 0.16 0.16 0.23 0.30 0.27 0.14 0.12 0.10 0.08 0.05 0.11 0.10 0.03 0.00 0.00 0.00 0.00 0.00 0.00 0.01 0.01
0.03 0.02 0.03 0.07 0.05 0.07 0.07 0.05 0.03 0.02 0.02 0.04 0.04 0.02 0.00 0.00 0.00 0.00 0.00 0.00 0.00 0.00
0.00 0.00 0.00 0.00 0.00 0.00 0.00 0.01 0.02 0.01 0.02 0.03 0.04 0.02 0.00 0.00 0.00 0.00 0.00 0.00 0.00 0.00
0.00 0.00 0.00 0.00 0.00 0.00 0.00 0.00 0.00 0.01 0.01 0.01 0.01 0.01 0.01 0.00 0.00 0.00 0.00 0.00 0.00 0.00
0.00 0.00 0.00 0.00 0.00 0.00 0.00 0.00 0.00 0.00 0.00 0.00 0.00 0.01 0.01 0.00 0.00 0.00 0.00 0.00 0.00 0.00
0.00 0.00 0.00 0.00 0.00 0.00 0.00 0.00 0.00 0.00 0.00 0.00 0.00 0.00 0.01 0.00 0.00 0.00 0.00 0.00 0.00 0.00
0.00 0.00 0.00 0.00 0.00 0.00 0.00 0.00 0.00 0.00 0.00 0.00 0.00 0.00 0.00 0.00 0.00 0.00 0.00 0.00 0.00 0.00
0.00 0.00 0.00 0.00 0.00 0.00 0.00 0.00 0.00 0.00 0.00 0.00 0.00 0.00 0.00 0.00 0.00 0.00 0.00 0.00 0.00 0.00
0.00 0.00 0.00 0.00 0.00 0.00 0.00 0.00 0.00 0.00 0.00 0.00 0.00 0.00 0.00 0.00 0.00 0.00 0.00 0.00 0.00 0.00
0.00 0.00 0.00 0.00 0.00 0.00 0.00 0.00 0.00 0.00 0.00 0.00 0.00 0.01 0.01 0.01 0.00 0.00 0.00 0.00 0.00 0.00
0.00 0.00 0.00 0.00 0.00 0.00 0.00 0.00 0.00 0.00 0.00 0.00 0.01 0.01 0.01 0.01 0.00 0.00 0.00 0.00 0.00 0.00
0.00 0.00 0.00 0.00 0.00 0.00 0.00 0.00 0.00 0.00 0.00 0.00 0.00 0.01 0.00 0.00 0.00 0.00 0.00 0.00 0.00 0.00
0.00 0.00 0.00 0.00 0.00 0.00 0.00 0.00 0.00 0.00 0.00 0.00 0.00 0.00 0.01 0.00 0.00 0.00 0.00 0.00 0.00 0.00
0.00 0.00 0.00 0.00 0.00 0.00 0.00 0.00 0.00 0.00 0.00 0.00 0.00 0.00 0.01 0.01 0.00 0.00 0.00 0.00 0.00 0.00

GFSNIL_prec_precacc24_096.txt.gz
Total_Precipitation_Accumulation
0.20 0.24 0.20 0.28 0.37 0.36 0.22 0.16 0.12 0.12 0.09 0.13 0.20 0.23 0.18 0.10 0.03 0.00 0.00 0.00 0.00 0.00
0.20 0.23 0.23 0.23 0.19 0.22 0.22 0.17 0.12 0.06 0.03 0.04 0.06 0.06 0.07 0.06 0.03 0.00 0.00 0.00 0.00 0.00
0.01 0.02 0.03 0.04 0.03 0.04 0.06 0.04 0.03 0.02 0.02 0.04 0.07 0.10 0.06 0.05 0.03 0.00 0.00 0.00 0.00 0.00
0.00 0.00 0.00 0.00 0.00 0.00 0.00 0.00 0.00 0.01 0.01 0.02 0.04 0.04 0.02 0.01 0.00 0.00 0.00 0.00 0.00 0.00
0.00 0.00 0.00 0.00 0.00 0.00 0.00 0.00 0.00 0.00 0.00 0.00 0.01 0.02 0.01 0.02 0.02 0.01 0.00 0.00 0.00 0.00
0.00 0.00 0.00 0.00 0.00 0.00 0.00 0.00 0.00 0.00 0.00 0.00 0.00 0.00 0.01 0.01 0.01 0.01 0.01 0.00 0.00 0.00
0.00 0.00 0.00 0.00 0.00 0.00 0.00 0.00 0.00 0.00 0.00 0.00 0.00 0.00 0.00 0.00 0.00 0.00 0.00 0.00 0.00 0.00
0.00 0.00 0.00 0.00 0.00 0.00 0.00 0.00 0.00 0.00 0.00 0.00 0.00 0.00 0.00 0.00 0.00 0.00 0.00 0.00 0.00 0.00
0.00 0.00 0.00 0.00 0.00 0.00 0.00 0.00 0.00 0.00 0.00 0.00 0.00 0.00 0.00 0.00 0.00 0.00 0.00 0.00 0.00 0.00
0.00 0.00 0.00 0.00 0.00 0.00 0.00 0.00 0.00 0.00 0.00 0.00 0.00 0.01 0.00 0.00 0.00 0.00 0.00 0.00 0.00 0.00
0.00 0.00 0.00 0.00 0.00 0.00 0.00 0.00 0.00 0.00 0.00 0.00 0.00 0.01 0.01 0.01 0.00 0.00 0.00 0.00 0.00 0.00
0.00 0.00 0.00 0.00 0.00 0.00 0.00 0.00 0.00 0.00 0.00 0.00 0.00 0.01 0.00 0.00 0.00 0.00 0.00 0.00 0.00 0.00
0.00 0.00 0.00 0.00 0.00 0.00 0.00 0.00 0.00 0.00 0.00 0.00 0.00 0.00 0.01 0.00 0.00 0.00 0.00 0.00 0.00 0.00
0.00 0.00 0.00 0.00 0.00 0.00 0.00 0.00 0.00 0.00 0.00 0.00 0.00 0.00 0.01 0.01 0.00 0.00 0.00 0.00 0.00 0.00

GFSNIL_prec_precacc24_099.txt.gz
Total_Precipitation_Accumulation
0.28 0.33 0.27 0.31 0.39 0.37 0.26 0.20 0.18 0.14 0.10 0.14 0.20 0.23 0.22 0.20 0.12 0.05 0.02 0.03 0.02 0.02
0.27 0.36 0.37 0.32 0.23 0.25 0.28 0.22 0.20 0.10 0.03 0.05 0.06 0.07 0.10 0.12 0.16 0.13 0.09 0.05 0.01 0.00
0.02 0.04 0.09 0.12 0.14 0.14 0.14 0.09 0.13 0.14 0.07 0.06 0.08 0.13 0.09 0.07 0.07 0.05 0.03 0.01 0.00 0.00
0.00 0.00 0.00 0.00 0.00 0.00 0.01 0.03 0.02 0.03 0.03 0.02 0.04 0.05 0.05 0.04 0.03 0.03 0.01 0.01 0.00 0.00
0.00 0.00 0.00 0.00 0.00 0.00 0.00 0.00 0.00 0.00 0.00 0.00 0.01 0.02 0.02 0.04 0.05 0.03 0.03 0.01 0.00 0.00
0.00 0.00 0.00 0.00 0.00 0.00 0.00 0.00 0.00 0.00 0.00 0.00 0.00 0.00 0.01 0.01 0.01 0.02 0.02 0.02 0.03 0.02
0.00 0.00 0.00 0.00 0.00 0.00 0.00 0.00 0.00 0.00 0.00 0.00 0.00 0.00 0.00 0.00 0.00 0.00 0.00 0.00 0.01 0.01
0.00 0.00 0.00 0.00 0.00 0.00 0.00 0.00 0.00 0.00 0.00 0.00 0.00 0.00 0.00 0.00 0.00 0.00 0.00 0.00 0.00 0.00
0.00 0.00 0.00 0.00 0.00 0.00 0.00 0.00 0.00 0.00 0.00 0.00 0.00 0.00 0.00 0.00 0.00 0.00 0.00 0.00 0.00 0.00
0.00 0.00 0.00 0.00 0.00 0.00 0.00 0.00 0.00 0.00 0.00 0.00 0.00 0.00 0.00 0.00 0.00 0.00 0.00 0.00 0.00 0.00
0.00 0.00 0.00 0.00 0.00 0.00 0.00 0.00 0.00 0.00 0.00 0.00 0.00 0.00 0.01 0.01 0.00 0.00 0.00 0.00 0.00 0.00
0.00 0.00 0.00 0.00 0.00 0.00 0.00 0.00 0.00 0.00 0.00 0.00 0.00 0.00 0.00 0.00 0.00 0.00 0.00 0.00 0.00 0.00
0.00 0.00 0.00 0.00 0.00 0.00 0.00 0.00 0.00 0.00 0.00 0.00 0.00 0.00 0.01 0.00 0.00 0.00 0.00 0.00 0.00 0.00
0.00 0.00 0.00 0.00 0.00 0.00 0.00 0.00 0.00 0.00 0.00 0.00 0.01 0.00 0.01 0.01 0.00 0.00 0.00 0.00 0.00 0.00

GFSNIL_prec_precacc24_102.txt.gz
Total_Precipitation_Accumulation
0.49 0.46 0.34 0.38 0.47 0.49 0.36 0.30 0.28 0.21 0.14 0.15 0.22 0.26 0.25 0.22 0.13 0.07 0.03 0.04 0.03 0.02
0.46 0.47 0.46 0.42 0.33 0.31 0.31 0.24 0.26 0.16 0.06 0.08 0.08 0.09 0.16 0.16 0.20 0.19 0.14 0.09 0.04 0.01
0.16 0.12 0.18 0.22 0.27 0.22 0.23 0.15 0.18 0.19 0.10 0.10 0.12 0.16 0.13 0.09 0.11 0.10 0.10 0.09 0.07 0.03
0.02 0.00 0.01 0.02 0.02 0.02 0.04 0.07 0.08 0.09 0.11 0.11 0.09 0.10 0.08 0.07 0.06 0.06 0.06 0.06 0.03 0.04
0.00 0.00 0.00 0.00 0.00 0.00 0.00 0.00 0.00 0.00 0.00 0.00 0.01 0.04 0.04 0.05 0.05 0.04 0.03 0.04 0.02 0.02
0.00 0.00 0.00 0.00 0.00 0.00 0.00 0.00 0.00 0.00 0.00 0.00 0.00 0.00 0.01 0.01 0.02 0.02 0.03 0.03 0.04 0.03
0.00 0.00 0.00 0.00 0.00 0.00 0.00 0.00 0.00 0.00 0.00 0.00 0.00 0.00 0.00 0.00 0.00 0.00 0.00 0.01 0.02 0.01
0.00 0.00 0.00 0.00 0.00 0.00 0.00 0.00 0.00 0.00 0.00 0.00 0.00 0.00 0.00 0.00 0.00 0.00 0.00 0.00 0.00 0.00
0.00 0.00 0.00 0.00 0.00 0.00 0.00 0.00 0.00 0.00 0.00 0.00 0.00 0.00 0.00 0.00 0.00 0.00 0.00 0.00 0.00 0.00
0.00 0.00 0.00 0.00 0.00 0.00 0.00 0.00 0.00 0.00 0.00 0.00 0.00 0.00 0.00 0.00 0.00 0.00 0.00 0.00 0.00 0.00
0.00 0.00 0.00 0.00 0.00 0.00 0.00 0.00 0.00 0.00 0.00 0.00 0.00 0.00 0.00 0.00 0.00 0.00 0.00 0.00 0.00 0.00
0.00 0.00 0.00 0.00 0.00 0.00 0.00 0.00 0.00 0.00 0.00 0.00 0.00 0.00 0.00 0.00 0.00 0.00 0.00 0.00 0.00 0.00
0.00 0.00 0.00 0.00 0.00 0.00 0.00 0.00 0.00 0.00 0.00 0.00 0.00 0.00 0.01 0.01 0.00 0.00 0.00 0.00 0.00 0.00
0.00 0.00 0.00 0.00 0.00 0.00 0.00 0.00 0.00 0.00 0.00 0.00 0.00 0.00 0.02 0.02 0.01 0.00 0.00 0.00 0.00 0.00

GFSNIL_prec_precacc24_108.txt.gz
Total_Precipitation_Accumulation
0.83 0.79 0.65 0.53 0.59 0.73 0.78 0.62 0.58 0.48 0.35 0.40 0.44 0.42 0.40 0.37 0.24 0.18 0.12 0.11 0.09 0.06
1.23 1.11 1.08 0.84 0.67 0.72 0.68 0.61 0.67 0.51 0.31 0.23 0.22 0.20 0.25 0.24 0.27 0.26 0.21 0.17 0.14 0.08
1.00 0.79 0.70 0.70 0.65 0.71 0.65 0.56 0.49 0.44 0.29 0.26 0.23 0.26 0.22 0.16 0.15 0.15 0.14 0.14 0.12 0.10
0.39 0.30 0.25 0.24 0.31 0.26 0.29 0.40 0.37 0.36 0.37 0.29 0.22 0.23 0.22 0.18 0.14 0.14 0.14 0.12 0.09 0.08
0.11 0.07 0.08 0.08 0.13 0.10 0.09 0.09 0.13 0.15 0.19 0.27 0.27 0.22 0.24 0.24 0.15 0.14 0.10 0.10 0.08 0.06
0.00 0.00 0.00 0.00 0.00 0.00 0.00 0.00 0.00 0.00 0.00 0.01 0.02 0.03 0.02 0.02 0.02 0.03 0.04 0.04 0.04 0.04
0.00 0.00 0.00 0.00 0.00 0.00 0.00 0.00 0.00 0.00 0.00 0.00 0.00 0.00 0.00 0.00 0.00 0.00 0.00 0.01 0.02 0.02
0.00 0.00 0.00 0.00 0.00 0.00 0.00 0.00 0.00 0.00 0.00 0.00 0.00 0.00 0.00 0.00 0.00 0.00 0.00 0.00 0.00 0.00
0.00 0.00 0.00 0.00 0.00 0.00 0.00 0.00 0.00 0.00 0.00 0.00 0.00 0.00 0.00 0.00 0.00 0.00 0.00 0.00 0.00 0.00
0.00 0.00 0.00 0.00 0.00 0.00 0.00 0.00 0.00 0.00 0.00 0.00 0.00 0.00 0.00 0.00 0.00 0.00 0.00 0.00 0.00 0.00
0.00 0.00 0.00 0.00 0.00 0.00 0.00 0.00 0.00 0.00 0.00 0.00 0.00 0.00 0.00 0.00 0.00 0.00 0.00 0.00 0.00 0.00
0.00 0.00 0.00 0.00 0.00 0.00 0.00 0.00 0.00 0.00 0.00 0.00 0.00 0.00 0.00 0.00 0.00 0.00 0.00 0.00 0.00 0.00
0.00 0.00 0.00 0.00 0.00 0.00 0.00 0.00 0.00 0.00 0.00 0.00 0.00 0.00 0.00 0.01 0.00 0.00 0.00 0.00 0.00 0.01
0.00 0.00 0.00 0.00 0.00 0.00 0.00 0.00 0.00 0.00 0.00 0.00 0.00 0.00 0.01 0.01 0.01 0.00 0.01 0.01 0.01 0.01

GFSNIL_prec_precacc24_111.txt.gz
Total_Precipitation_Accumulation
0.84 0.79 0.65 0.53 0.57 0.69 0.77 0.68 0.66 0.58 0.57 0.60 0.56 0.50 0.47 0.47 0.34 0.26 0.18 0.16 0.13 0.13
1.24 1.12 1.09 0.86 0.70 0.75 0.71 0.63 0.73 0.61 0.45 0.44 0.46 0.44 0.40 0.34 0.39 0.36 0.30 0.26 0.24 0.19
1.05 0.89 0.79 0.86 0.87 0.91 0.90 0.69 0.56 0.53 0.41 0.45 0.43 0.43 0.37 0.29 0.25 0.24 0.21 0.19 0.17 0.15
0.68 0.76 0.58 0.51 0.53 0.42 0.47 0.69 0.59 0.47 0.44 0.40 0.33 0.35 0.34 0.31 0.27 0.26 0.20 0.17 0.14 0.12
0.36 0.28 0.24 0.23 0.23 0.15 0.15 0.18 0.24 0.23 0.25 0.40 0.44 0.39 0.38 0.38 0.37 0.36 0.33 0.30 0.29 0.24
0.03 0.01 0.01 0.05 0.05 0.02 0.02 0.03 0.03 0.03 0.02 0.02 0.06 0.09 0.09 0.09 0.13 0.15 0.17 0.21 0.19 0.13
0.00 0.00 0.00 0.00 0.00 0.00 0.00 0.00 0.00 0.00 0.00 0.00 0.00 0.00 0.00 0.00 0.00 0.00 0.01 0.01 0.02 0.02
0.00 0.00 0.00 0.00 0.00 0.00 0.00 0.00 0.00 0.00 0.00 0.00 0.00 0.00 0.00 0.00 0.00 0.00 0.00 0.00 0.00 0.00
0.00 0.00 0.00 0.00 0.00 0.00 0.00 0.00 0.00 0.00 0.00 0.00 0.00 0.00 0.00 0.00 0.00 0.00 0.00 0.00 0.00 0.00
0.00 0.00 0.00 0.00 0.00 0.00 0.00 0.00 0.00 0.00 0.00 0.00 0.00 0.00 0.00 0.00 0.00 0.00 0.00 0.00 0.00 0.00
0.00 0.00 0.00 0.00 0.00 0.00 0.00 0.00 0.00 0.00 0.00 0.00 0.00 0.00 0.00 0.00 0.00 0.00 0.00 0.00 0.00 0.00
0.00 0.00 0.00 0.00 0.00 0.00 0.00 0.00 0.00 0.00 0.00 0.00 0.00 0.00 0.00 0.00 0.00 0.00 0.00 0.00 0.00 0.00
0.00 0.00 0.00 0.00 0.00 0.00 0.00 0.00 0.00 0.00 0.00 0.00 0.00 0.00 0.00 0.00 0.00 0.00 0.00 0.00 0.00 0.01
0.00 0.00 0.00 0.00 0.00 0.00 0.00 0.00 0.00 0.00 0.00 0.00 0.00 0.00 0.01 0.01 0.01 0.00 0.01 0.01 0.01 0.01

GFSNIL_prec_precacc24_114.txt.gz
Total_Precipitation_Accumulation
0.84 0.79 0.65 0.53 0.57 0.69 0.76 0.64 0.62 0.53 0.53 0.56 0.56 0.51 0.47 0.47 0.35 0.27 0.19 0.16 0.14 0.14
1.30 1.15 1.10 0.86 0.70 0.75 0.70 0.63 0.72 0.61 0.45 0.46 0.48 0.51 0.50 0.40 0.42 0.40 0.33 0.27 0.25 0.20
1.07 0.89 0.79 0.86 0.88 0.92 0.94 0.82 0.66 0.58 0.43 0.48 0.54 0.57 0.55 0.51 0.47 0.40 0.28 0.22 0.20 0.19
0.70 0.79 0.59 0.54 0.65 0.62 0.63 0.94 0.86 0.70 0.59 0.45 0.35 0.38 0.40 0.40 0.40 0.42 0.37 0.31 0.24 0.21
0.44 0.56 0.48 0.40 0.48 0.34 0.31 0.35 0.43 0.41 0.37 0.47 0.48 0.42 0.42 0.43 0.44 0.45 0.43 0.42 0.42 0.35
0.12 0.23 0.26 0.21 0.21 0.12 0.05 0.06 0.06 0.05 0.04 0.04 0.07 0.09 0.11 0.12 0.17 0.21 0.24 0.28 0.31 0.28
0.01 0.02 0.04 0.05 0.02 0.02 0.00 0.00 0.00 0.00 0.00 0.00 0.00 0.00 0.00 0.00 0.00 0.01 0.01 0.02 0.03 0.03
0.00 0.00 0.00 0.00 0.00 0.00 0.00 0.00 0.00 0.00 0.00 0.00 0.00 0.00 0.00 0.00 0.00 0.00 0.00 0.00 0.00 0.00
0.00 0.00 0.00 0.00 0.00 0.00 0.00 0.00 0.00 0.00 0.00 0.00 0.00 0.00 0.00 0.00 0.00 0.00 0.00 0.00 0.00 0.00
0.00 0.00 0.00 0.00 0.00 0.00 0.00 0.00 0.00 0.00 0.00 0.00 0.00 0.00 0.00 0.00 0.00 0.00 0.00 0.00 0.00 0.00
0.00 0.00 0.00 0.00 0.00 0.00 0.00 0.00 0.00 0.00 0.00 0.00 0.00 0.00 0.00 0.00 0.00 0.00 0.00 0.00 0.00 0.00
0.00 0.00 0.00 0.00 0.00 0.00 0.00 0.00 0.00 0.00 0.00 0.00 0.00 0.00 0.00 0.00 0.00 0.00 0.00 0.00 0.00 0.00
0.00 0.00 0.00 0.00 0.00 0.00 0.00 0.00 0.00 0.00 0.00 0.00 0.00 0.00 0.00 0.00 0.00 0.00 0.00 0.00 0.00 0.01
0.00 0.00 0.00 0.00 0.00 0.00 0.00 0.00 0.00 0.00 0.00 0.00 0.00 0.00 0.01 0.01 0.01 0.00 0.01 0.01 0.01 0.01

GFSNIL_prec_precacc24_117.txt.gz
Total_Precipitation_Accumulation
0.77 0.70 0.56 0.45 0.55 0.65 0.79 0.68 0.60 0.51 0.52 0.49 0.46 0.48 0.48 0.48 0.36 0.28 0.20 0.17 0.15 0.16
1.34 1.19 1.15 0.92 0.75 0.79 0.75 0.64 0.72 0.61 0.44 0.43 0.45 0.50 0.51 0.41 0.43 0.41 0.34 0.29 0.27 0.23
1.13 0.96 0.87 0.91 0.90 0.93 0.94 0.81 0.65 0.58 0.42 0.45 0.51 0.57 0.58 0.57 0.55 0.51 0.40 0.34 0.30 0.25
0.74 0.82 0.62 0.55 0.65 0.63 0.64 0.94 0.88 0.73 0.66 0.48 0.37 0.39 0.42 0.44 0.47 0.52 0.51 0.48 0.43 0.36
0.46 0.57 0.49 0.40 0.48 0.35 0.33 0.37 0.48 0.53 0.53 0.62 0.59 0.50 0.47 0.47 0.46 0.48 0.47 0.48 0.51 0.47
0.12 0.25 0.30 0.24 0.25 0.21 0.13 0.12 0.13 0.13 0.18 0.21 0.18 0.15 0.14 0.14 0.18 0.22 0.25 0.31 0.36 0.34
0.02 0.06 0.10 0.11 0.07 0.11 0.11 0.05 0.03 0.02 0.02 0.02 0.01 0.01 0.00 0.00 0.00 0.01 0.02 0.03 0.05 0.07
0.02 0.01 0.02 0.01 0.00 0.01 0.04 0.06 0.03 0.00 0.00 0.00 0.00 0.00 0.00 0.00 0.00 0.00 0.00 0.00 0.00 0.00
0.00 0.00 0.01 0.01 0.00 0.00 0.00 0.00 0.00 0.00 0.00 0.00 0.00 0.00 0.00 0.00 0.00 0.00 0.00 0.00 0.00 0.00
0.00 0.00 0.00 0.00 0.00 0.00 0.00 0.00 0.00 0.00 0.00 0.00 0.00 0.00 0.00 0.00 0.00 0.00 0.00 0.00 0.00 0.00
0.00 0.00 0.00 0.00 0.00 0.00 0.00 0.00 0.00 0.00 0.00 0.00 0.00 0.00 0.00 0.00 0.00 0.00 0.00 0.00 0.00 0.00
0.00 0.00 0.00 0.00 0.00 0.00 0.00 0.00 0.00 0.00 0.00 0.00 0.00 0.00 0.00 0.00 0.00 0.00 0.00 0.00 0.00 0.00
0.00 0.00 0.00 0.00 0.00 0.00 0.00 0.00 0.00 0.00 0.00 0.00 0.00 0.00 0.00 0.00 0.00 0.00 0.00 0.00 0.00 0.01
0.00 0.00 0.00 0.00 0.00 0.00 0.00 0.00 0.00 0.00 0.00 0.00 0.00 0.00 0.01 0.01 0.01 0.00 0.01 0.01 0.01 0.01

GFSNIL_prec_precacc24_120.txt.gz
Total_Precipitation_Accumulation
0.73 0.62 0.52 0.40 0.49 0.60 0.79 0.76 0.72 0.60 0.60 0.57 0.47 0.38 0.37 0.48 0.39 0.29 0.21 0.18 0.16 0.16
1.17 1.00 0.98 0.79 0.65 0.68 0.68 0.66 0.79 0.69 0.56 0.51 0.48 0.50 0.46 0.37 0.41 0.42 0.35 0.30 0.28 0.23
1.12 0.95 0.85 0.89 0.90 0.93 0.92 0.83 0.71 0.64 0.48 0.57 0.50 0.52 0.56 0.53 0.53 0.51 0.43 0.38 0.34 0.31
0.77 0.86 0.66 0.60 0.69 0.66 0.67 0.97 0.90 0.76 0.68 0.50 0.36 0.37 0.42 0.44 0.47 0.53 0.53 0.54 0.50 0.47
0.46 0.58 0.50 0.41 0.49 0.36 0.33 0.37 0.48 0.54 0.54 0.62 0.60 0.51 0.49 0.47 0.47 0.49 0.50 0.51 0.56 0.54
0.14 0.25 0.30 0.25 0.25 0.21 0.13 0.13 0.13 0.13 0.18 0.22 0.22 0.19 0.17 0.16 0.20 0.26 0.29 0.34 0.38 0.38
0.03 0.06 0.11 0.11 0.07 0.11 0.12 0.06 0.03 0.03 0.02 0.03 0.06 0.07 0.06 0.04 0.03 0.02 0.02 0.03 0.06 0.08
0.03 0.04 0.03 0.02 0.01 0.01 0.05 0.10 0.10 0.06 0.03 0.01 0.01 0.01 0.02 0.03 0.05 0.06 0.05 0.03 0.01 0.01
0.00 0.01 0.02 0.04 0.04 0.03 0.02 0.01 0.02 0.05 0.06 0.05 0.04 0.04 0.03 0.02 0.01 0.01 0.01 0.00 0.00 0.00
0.00 0.01 0.02 0.02 0.02 0.02 0.03 0.02 0.01 0.02 0.01 0.00 0.00 0.00 0.00 0.00 0.00 0.00 0.00 0.00 0.00 0.00
0.00 0.00 0.00 0.00 0.00 0.00 0.00 0.00 0.00 0.00 0.00 0.00 0.00 0.00 0.00 0.00 0.00 0.00 0.00 0.00 0.00 0.00
0.00 0.00 0.00 0.00 0.00 0.00 0.00 0.00 0.00 0.00 0.00 0.00 0.00 0.00 0.00 0.00 0.00 0.00 0.00 0.00 0.00 0.00
0.00 0.00 0.00 0.00 0.00 0.00 0.00 0.00 0.00 0.00 0.00 0.00 0.00 0.00 0.00 0.00 0.00 0.00 0.00 0.00 0.00 0.01
0.00 0.00 0.00 0.00 0.00 0.00 0.00 0.00 0.00 0.00 0.00 0.00 0.00 0.00 0.01 0.01 0.01 0.00 0.01 0.01 0.01 0.01

GFSNIL_prec_precacc24_123.txt.gz
Total_Precipitation_Accumulation
0.65 0.52 0.45 0.37 0.47 0.59 0.77 0.74 0.71 0.65 0.68 0.67 0.58 0.53 0.50 0.56 0.50 0.38 0.28 0.24 0.23 0.23
1.11 0.87 0.83 0.70 0.61 0.65 0.63 0.62 0.73 0.71 0.63 0.60 0.58 0.64 0.61 0.61 0.62 0.51 0.52 0.39 0.31 0.27
1.12 0.93 0.79 0.81 0.79 0.83 0.85 0.79 0.64 0.61 0.52 0.67 0.75 0.59 0.62 0.62 0.71 0.77 0.55 0.47 0.42 0.34
0.77 0.86 0.66 0.60 0.69 0.67 0.66 0.95 0.89 0.76 0.71 0.55 0.47 0.63 0.60 0.47 0.48 0.54 0.54 0.54 0.51 0.47
0.47 0.59 0.51 0.41 0.49 0.36 0.34 0.40 0.53 0.55 0.55 0.64 0.65 0.55 0.56 0.52 0.45 0.47 0.48 0.51 0.56 0.54
0.17 0.27 0.31 0.25 0.25 0.21 0.13 0.13 0.13 0.13 0.18 0.22 0.22 0.19 0.17 0.16 0.19 0.25 0.28 0.33 0.37 0.37
0.06 0.09 0.12 0.12 0.07 0.11 0.12 0.06 0.03 0.03 0.02 0.03 0.06 0.07 0.06 0.04 0.03 0.02 0.02 0.03 0.05 0.08
0.06 0.10 0.10 0.07 0.02 0.01 0.05 0.10 0.10 0.06 0.04 0.01 0.01 0.01 0.02 0.03 0.06 0.07 0.07 0.06 0.05 0.04
0.00 0.01 0.02 0.04 0.05 0.04 0.03 0.01 0.02 0.06 0.09 0.10 0.10 0.09 0.05 0.04 0.04 0.05 0.05 0.05 0.03 0.02
0.00 0.01 0.02 0.03 0.03 0.03 0.04 0.04 0.03 0.04 0.05 0.03 0.02 0.03 0.03 0.01 0.01 0.01 0.01 0.01 0.01 0.00
0.00 0.00 0.00 0.00 0.00 0.00 0.00 0.01 0.01 0.01 0.01 0.00 0.00 0.00 0.00 0.00 0.00 0.00 0.00 0.00 0.00 0.00
0.00 0.00 0.00 0.00 0.00 0.00 0.00 0.00 0.00 0.00 0.00 0.00 0.00 0.00 0.00 0.00 0.00 0.00 0.00 0.00 0.00 0.00
0.00 0.00 0.00 0.00 0.00 0.00 0.00 0.00 0.00 0.00 0.00 0.00 0.00 0.00 0.00 0.00 0.00 0.00 0.00 0.00 0.00 0.01
0.00 0.00 0.00 0.00 0.00 0.00 0.00 0.00 0.00 0.00 0.00 0.00 0.00 0.00 0.00 0.00 0.01 0.00 0.01 0.01 0.01 0.01

GFSNIL_prec_precacc24_129.txt.gz
Total_Precipitation_Accumulation
0.06 0.08 0.05 0.06 0.13 0.24 0.44 0.48 0.43 0.45 0.54 0.56 0.51 0.49 0.48 0.61 0.63 0.70 0.67 0.68 0.76 0.82
0.30 0.37 0.33 0.29 0.26 0.29 0.31 0.38 0.52 0.50 0.51 0.50 0.49 0.59 0.57 0.57 0.61 0.55 0.82 1.06 0.97 0.86
0.49 0.51 0.45 0.52 0.47 0.56 0.56 0.55 0.47 0.48 0.46 0.62 0.71 0.57 0.59 0.63 0.72 0.81 0.67 0.63 0.87 1.03
0.57 0.72 0.54 0.46 0.52 0.54 0.54 0.81 0.77 0.65 0.60 0.47 0.44 0.60 0.60 0.48 0.50 0.57 0.53 0.51 0.51 0.52
0.44 0.57 0.49 0.39 0.47 0.35 0.34 0.41 0.57 0.62 0.59 0.66 0.70 0.59 0.61 0.68 0.59 0.54 0.52 0.51 0.56 0.54
0.18 0.28 0.32 0.27 0.26 0.21 0.13 0.13 0.14 0.15 0.20 0.25 0.24 0.22 0.24 0.25 0.33 0.40 0.41 0.42 0.41 0.38
0.06 0.10 0.14 0.15 0.10 0.13 0.13 0.06 0.04 0.03 0.02 0.03 0.06 0.07 0.06 0.04 0.04 0.04 0.03 0.04 0.07 0.08
0.06 0.10 0.10 0.08 0.04 0.03 0.06 0.11 0.10 0.07 0.04 0.01 0.01 0.02 0.02 0.03 0.06 0.07 0.07 0.06 0.06 0.04
0.00 0.01 0.02 0.04 0.05 0.04 0.04 0.02 0.03 0.06 0.09 0.10 0.11 0.10 0.06 0.04 0.05 0.05 0.05 0.05 0.04 0.03
0.00 0.01 0.02 0.03 0.03 0.03 0.04 0.04 0.03 0.04 0.05 0.04 0.03 0.05 0.04 0.02 0.01 0.01 0.01 0.01 0.01 0.01
0.00 0.00 0.00 0.00 0.00 0.00 0.00 0.01 0.01 0.01 0.01 0.00 0.00 0.00 0.00 0.00 0.00 0.00 0.00 0.00 0.00 0.00
0.00 0.00 0.00 0.00 0.00 0.00 0.00 0.00 0.00 0.00 0.00 0.00 0.00 0.00 0.00 0.00 0.00 0.00 0.00 0.00 0.00 0.00
0.00 0.00 0.00 0.00 0.00 0.00 0.00 0.00 0.00 0.00 0.00 0.00 0.00 0.00 0.00 0.00 0.00 0.00 0.00 0.00 0.00 0.00
0.00 0.00 0.00 0.00 0.00 0.00 0.00 0.00 0.00 0.00 0.00 0.00 0.00 0.00 0.00 0.00 0.00 0.00 0.00 0.01 0.01 0.01

GFSNIL_prec_precacc24_132.txt.gz
Total_Precipitation_Accumulation
0.01 0.01 0.01 0.03 0.07 0.13 0.18 0.27 0.30 0.31 0.43 0.42 0.37 0.38 0.38 0.50 0.55 0.63 0.62 0.63 0.72 0.81
0.15 0.12 0.11 0.12 0.12 0.13 0.18 0.20 0.25 0.30 0.36 0.43 0.43 0.53 0.51 0.54 0.59 0.53 0.78 1.00 0.94 0.85
0.14 0.17 0.19 0.23 0.28 0.25 0.33 0.32 0.29 0.31 0.31 0.49 0.63 0.50 0.53 0.59 0.70 0.79 0.66 0.63 0.86 1.03
0.39 0.57 0.42 0.37 0.39 0.41 0.39 0.58 0.56 0.44 0.39 0.32 0.34 0.50 0.48 0.40 0.46 0.52 0.49 0.50 0.50 0.52
0.37 0.52 0.43 0.33 0.37 0.26 0.26 0.32 0.46 0.48 0.41 0.41 0.46 0.43 0.43 0.52 0.53 0.50 0.51 0.51 0.60 0.58
0.18 0.28 0.32 0.26 0.26 0.21 0.13 0.13 0.13 0.15 0.20 0.24 0.22 0.20 0.23 0.25 0.35 0.43 0.45 0.45 0.45 0.42
0.06 0.10 0.14 0.15 0.10 0.13 0.13 0.06 0.04 0.03 0.02 0.03 0.06 0.07 0.06 0.04 0.04 0.05 0.05 0.07 0.10 0.12
0.06 0.10 0.10 0.08 0.04 0.03 0.06 0.11 0.10 0.07 0.04 0.01 0.01 0.02 0.02 0.03 0.06 0.07 0.07 0.06 0.06 0.05
0.00 0.01 0.02 0.04 0.05 0.04 0.04 0.02 0.03 0.06 0.09 0.10 0.11 0.10 0.06 0.04 0.05 0.05 0.05 0.05 0.04 0.03
0.00 0.01 0.02 0.03 0.03 0.03 0.04 0.04 0.03 0.04 0.05 0.04 0.03 0.05 0.04 0.02 0.01 0.01 0.01 0.01 0.01 0.01
0.00 0.00 0.00 0.00 0.00 0.00 0.00 0.01 0.01 0.01 0.01 0.00 0.00 0.00 0.00 0.00 0.00 0.00 0.00 0.00 0.00 0.00
0.00 0.00 0.00 0.00 0.00 0.00 0.00 0.00 0.00 0.00 0.00 0.00 0.00 0.00 0.00 0.00 0.00 0.00 0.00 0.00 0.00 0.00
0.00 0.00 0.00 0.00 0.00 0.00 0.00 0.00 0.00 0.00 0.00 0.00 0.00 0.00 0.00 0.00 0.00 0.00 0.00 0.00 0.00 0.00
0.00 0.00 0.00 0.00 0.00 0.00 0.00 0.00 0.00 0.00 0.00 0.00 0.00 0.00 0.00 0.00 0.00 0.00 0.00 0.00 0.00 0.00

GFSNIL_prec_precacc24_135.txt.gz
Total_Precipitation_Accumulation
0.00 0.00 0.01 0.02 0.06 0.12 0.16 0.18 0.20 0.21 0.21 0.22 0.25 0.30 0.32 0.41 0.45 0.55 0.55 0.59 0.69 0.75
0.14 0.11 0.10 0.10 0.09 0.10 0.15 0.17 0.19 0.19 0.22 0.22 0.19 0.30 0.37 0.44 0.47 0.43 0.69 0.93 0.85 0.76
0.09 0.08 0.09 0.07 0.06 0.06 0.08 0.19 0.21 0.22 0.19 0.30 0.43 0.33 0.38 0.46 0.60 0.70 0.60 0.58 0.82 0.99
0.10 0.11 0.09 0.10 0.17 0.26 0.21 0.29 0.34 0.33 0.32 0.21 0.23 0.39 0.37 0.28 0.33 0.42 0.44 0.45 0.46 0.51
0.11 0.31 0.27 0.18 0.27 0.21 0.19 0.23 0.34 0.40 0.35 0.28 0.29 0.26 0.29 0.37 0.32 0.28 0.30 0.34 0.42 0.46
0.15 0.28 0.31 0.22 0.21 0.19 0.11 0.10 0.11 0.12 0.18 0.22 0.18 0.14 0.16 0.17 0.24 0.31 0.31 0.30 0.33 0.36
0.06 0.10 0.14 0.15 0.10 0.13 0.13 0.06 0.04 0.03 0.02 0.03 0.06 0.07 0.06 0.04 0.04 0.05 0.05 0.07 0.10 0.12
0.06 0.10 0.10 0.08 0.04 0.03 0.06 0.11 0.10 0.07 0.04 0.01 0.01 0.02 0.02 0.03 0.06 0.07 0.07 0.06 0.06 0.05
0.00 0.01 0.02 0.04 0.05 0.04 0.04 0.02 0.03 0.06 0.09 0.10 0.11 0.10 0.06 0.04 0.05 0.05 0.05 0.05 0.04 0.03
0.00 0.01 0.02 0.03 0.03 0.03 0.04 0.04 0.03 0.04 0.05 0.04 0.03 0.05 0.04 0.02 0.01 0.01 0.01 0.01 0.01 0.01
0.00 0.00 0.00 0.00 0.00 0.00 0.00 0.01 0.01 0.01 0.01 0.00 0.00 0.00 0.00 0.00 0.00 0.00 0.00 0.00 0.00 0.00
0.00 0.00 0.00 0.00 0.00 0.00 0.00 0.00 0.00 0.00 0.00 0.00 0.00 0.00 0.00 0.00 0.00 0.00 0.00 0.00 0.00 0.00
0.00 0.00 0.00 0.00 0.00 0.00 0.00 0.00 0.00 0.00 0.00 0.00 0.00 0.00 0.00 0.00 0.00 0.00 0.00 0.00 0.00 0.00
0.00 0.00 0.00 0.00 0.00 0.00 0.00 0.00 0.00 0.00 0.00 0.00 0.00 0.00 0.00 0.00 0.00 0.00 0.00 0.00 0.00 0.00

GFSNIL_prec_precacc24_138.txt.gz
Total_Precipitation_Accumulation
0.00 0.00 0.01 0.02 0.06 0.12 0.16 0.18 0.20 0.21 0.21 0.21 0.24 0.30 0.31 0.41 0.45 0.54 0.55 0.59 0.69 0.76
0.07 0.07 0.09 0.10 0.09 0.09 0.14 0.16 0.19 0.19 0.21 0.19 0.16 0.22 0.26 0.39 0.44 0.39 0.66 0.92 0.84 0.75
0.06 0.07 0.09 0.07 0.05 0.04 0.04 0.06 0.11 0.17 0.17 0.28 0.32 0.19 0.20 0.24 0.38 0.54 0.53 0.57 0.79 0.95
0.08 0.08 0.08 0.07 0.05 0.05 0.04 0.04 0.06 0.09 0.16 0.16 0.20 0.36 0.31 0.19 0.19 0.25 0.27 0.31 0.36 0.42
0.03 0.03 0.03 0.01 0.01 0.02 0.03 0.06 0.15 0.22 0.23 0.20 0.25 0.23 0.25 0.33 0.25 0.19 0.20 0.22 0.29 0.35
0.06 0.05 0.06 0.06 0.05 0.10 0.08 0.07 0.07 0.10 0.16 0.20 0.17 0.14 0.14 0.14 0.20 0.25 0.25 0.22 0.21 0.20
0.05 0.08 0.10 0.10 0.07 0.11 0.12 0.06 0.04 0.03 0.02 0.03 0.06 0.07 0.06 0.04 0.04 0.04 0.05 0.06 0.08 0.11
0.05 0.10 0.10 0.08 0.04 0.03 0.06 0.11 0.10 0.07 0.04 0.01 0.01 0.02 0.02 0.03 0.06 0.07 0.07 0.06 0.06 0.05
0.00 0.01 0.02 0.04 0.05 0.04 0.04 0.02 0.03 0.06 0.09 0.10 0.11 0.10 0.06 0.04 0.05 0.05 0.05 0.05 0.04 0.03
0.00 0.01 0.02 0.03 0.03 0.03 0.04 0.04 0.03 0.04 0.05 0.04 0.03 0.05 0.04 0.02 0.01 0.01 0.01 0.01 0.01 0.01
0.00 0.00 0.00 0.00 0.00 0.00 0.00 0.01 0.01 0.01 0.01 0.00 0.00 0.00 0.00 0.00 0.00 0.00 0.00 0.00 0.00 0.00
0.00 0.00 0.00 0.00 0.00 0.00 0.00 0.00 0.00 0.00 0.00 0.00 0.00 0.00 0.00 0.00 0.00 0.00 0.00 0.00 0.00 0.00
0.00 0.00 0.00 0.00 0.00 0.00 0.00 0.00 0.00 0.00 0.00 0.00 0.00 0.00 0.00 0.00 0.00 0.00 0.00 0.00 0.00 0.00
0.00 0.00 0.00 0.00 0.00 0.00 0.00 0.00 0.00 0.00 0.00 0.00 0.00 0.00 0.00 0.00 0.00 0.00 0.00 0.00 0.00 0.00

GFSNIL_prec_precacc24_141.txt.gz
Total_Precipitation_Accumulation
0.00 0.00 0.00 0.00 0.01 0.05 0.10 0.14 0.19 0.21 0.21 0.21 0.24 0.29 0.31 0.40 0.44 0.54 0.54 0.58 0.67 0.74
0.01 0.01 0.02 0.03 0.04 0.05 0.09 0.14 0.18 0.19 0.20 0.18 0.16 0.21 0.25 0.37 0.43 0.38 0.65 0.89 0.81 0.72
0.01 0.00 0.01 0.02 0.03 0.04 0.04 0.06 0.11 0.16 0.16 0.27 0.31 0.17 0.16 0.18 0.30 0.44 0.41 0.44 0.70 0.89
0.03 0.04 0.05 0.05 0.05 0.04 0.03 0.03 0.05 0.06 0.09 0.12 0.17 0.34 0.28 0.14 0.13 0.15 0.13 0.14 0.17 0.27
0.02 0.02 0.02 0.01 0.01 0.01 0.02 0.04 0.10 0.09 0.07 0.06 0.13 0.14 0.19 0.29 0.23 0.16 0.16 0.16 0.20 0.23
0.06 0.03 0.02 0.03 0.01 0.00 0.00 0.01 0.01 0.02 0.02 0.04 0.06 0.07 0.10 0.12 0.19 0.24 0.23 0.19 0.16 0.15
0.05 0.04 0.04 0.04 0.03 0.02 0.01 0.01 0.01 0.00 0.00 0.01 0.04 0.06 0.05 0.04 0.04 0.04 0.04 0.05 0.07 0.07
0.04 0.09 0.09 0.07 0.03 0.02 0.02 0.06 0.07 0.06 0.04 0.01 0.01 0.02 0.02 0.03 0.06 0.07 0.07 0.06 0.06 0.05
0.00 0.01 0.01 0.04 0.05 0.04 0.04 0.02 0.03 0.06 0.09 0.10 0.11 0.10 0.06 0.04 0.05 0.05 0.05 0.05 0.04 0.03
0.00 0.01 0.01 0.02 0.02 0.02 0.04 0.04 0.03 0.04 0.05 0.04 0.03 0.05 0.04 0.02 0.01 0.01 0.01 0.01 0.01 0.01
0.00 0.00 0.00 0.00 0.00 0.00 0.00 0.01 0.01 0.01 0.01 0.00 0.00 0.00 0.00 0.00 0.00 0.00 0.00 0.00 0.00 0.00
0.00 0.00 0.00 0.00 0.00 0.00 0.00 0.00 0.00 0.00 0.00 0.00 0.00 0.00 0.00 0.00 0.00 0.00 0.00 0.00 0.00 0.00
0.00 0.00 0.00 0.00 0.00 0.00 0.00 0.00 0.00 0.00 0.00 0.00 0.00 0.00 0.00 0.00 0.00 0.00 0.00 0.00 0.00 0.00
0.00 0.00 0.00 0.00 0.00 0.00 0.00 0.00 0.00 0.00 0.00 0.00 0.00 0.00 0.00 0.00 0.00 0.00 0.00 0.00 0.00 0.00

GFSNIL_prec_precacc24_144.txt.gz
Total_Precipitation_Accumulation
0.00 0.00 0.00 0.00 0.00 0.01 0.01 0.02 0.05 0.08 0.10 0.11 0.14 0.19 0.23 0.30 0.38 0.52 0.53 0.57 0.66 0.73
0.00 0.00 0.00 0.00 0.00 0.00 0.00 0.00 0.02 0.06 0.08 0.10 0.11 0.17 0.24 0.36 0.41 0.37 0.64 0.89 0.81 0.72
0.01 0.00 0.00 0.00 0.00 0.00 0.00 0.01 0.03 0.08 0.10 0.15 0.29 0.14 0.14 0.17 0.29 0.43 0.38 0.40 0.65 0.84
0.01 0.01 0.01 0.01 0.00 0.01 0.01 0.01 0.02 0.03 0.07 0.10 0.16 0.33 0.27 0.14 0.13 0.14 0.10 0.09 0.10 0.16
0.01 0.01 0.01 0.00 0.00 0.00 0.01 0.04 0.10 0.08 0.06 0.05 0.12 0.12 0.17 0.27 0.20 0.14 0.13 0.13 0.15 0.16
0.04 0.03 0.02 0.01 0.01 0.00 0.00 0.00 0.01 0.02 0.02 0.02 0.02 0.03 0.07 0.10 0.16 0.20 0.18 0.16 0.13 0.10
0.03 0.03 0.03 0.04 0.03 0.02 0.01 0.01 0.00 0.00 0.00 0.00 0.00 0.00 0.00 0.00 0.02 0.03 0.04 0.05 0.06 0.06
0.02 0.06 0.07 0.05 0.03 0.02 0.01 0.01 0.00 0.00 0.00 0.00 0.00 0.00 0.00 0.00 0.01 0.01 0.02 0.04 0.05 0.04
0.00 0.00 0.00 0.01 0.01 0.01 0.01 0.01 0.00 0.01 0.03 0.04 0.06 0.06 0.03 0.02 0.03 0.04 0.04 0.04 0.03 0.03
0.00 0.00 0.00 0.00 0.00 0.00 0.01 0.02 0.01 0.02 0.04 0.03 0.03 0.05 0.04 0.02 0.01 0.01 0.01 0.01 0.01 0.01
0.00 0.00 0.00 0.00 0.00 0.00 0.00 0.00 0.01 0.01 0.01 0.00 0.00 0.00 0.00 0.00 0.00 0.00 0.00 0.00 0.00 0.00
0.00 0.00 0.00 0.00 0.00 0.00 0.00 0.00 0.00 0.00 0.00 0.00 0.00 0.00 0.00 0.00 0.00 0.00 0.00 0.00 0.00 0.00
0.00 0.00 0.00 0.00 0.00 0.00 0.00 0.00 0.00 0.00 0.00 0.00 0.00 0.00 0.00 0.00 0.00 0.00 0.00 0.00 0.00 0.00
0.00 0.00 0.00 0.00 0.00 0.00 0.00 0.00 0.00 0.00 0.00 0.00 0.00 0.00 0.00 0.00 0.00 0.00 0.00 0.00 0.00 0.00